| time (UTC) | temp F | wind direction | speed MPH | gust MPH | rain 1hr in | rain 24hr in | rain mn in | humidity % | barometer mb |
| 20260504110632 | 63 | 0 | 0.0 | 0.0 | 0.00 | 0.01 | 0.00 | 76 | 1014.2 |
| 20260504110532 | 63 | 0 | 0.0 | 0.0 | 0.00 | 0.01 | 0.00 | 76 | 1014.2 |
| 20260504110433 | 0 | 0.0 | 0.0 | 0.00 | 0.01 | 0.00 | 1014.2 | ||
| 20260504110332 | 0 | 0.0 | 0.0 | 0.00 | 0.01 | 0.00 | 1014.2 | ||
| 20260504110233 | 0 | 0.0 | 0.0 | 0.00 | 0.01 | 0.00 | 1014.1 | ||
| 20260504110131 | 0 | 0.0 | 0.0 | 0.00 | 0.01 | 0.00 | 1014.2 | ||
| 20260504100556 | 64 | 0 | 0.0 | 0.0 | 0.00 | 0.01 | 0.00 | 75 | 1014.5 |
| 20260504100457 | 64 | 0 | 0.0 | 0.0 | 0.00 | 0.01 | 0.00 | 75 | 1014.5 |
| 20260504100356 | 64 | 0 | 0.0 | 0.0 | 0.00 | 0.01 | 0.00 | 75 | 1014.4 |
| 20260504100257 | 64 | 0 | 0.0 | 0.0 | 0.00 | 0.01 | 0.00 | 75 | 1014.4 |
| 20260504100155 | 64 | 0 | 0.0 | 0.0 | 0.00 | 0.01 | 0.00 | 75 | 1014.4 |
| 20260504081932 | 0 | 0 | 0.0 | 0.0 | 0.00 | 0.02 | 0.00 | 1015.1 | |
| 20260504081831 | 0 | 0.0 | 0.0 | 0.00 | 0.02 | 0.00 | 1015.0 | ||
| 20260504081731 | 0 | 0.0 | 0.0 | 0.00 | 0.02 | 0.00 | 1014.9 | ||
| 20260504081631 | 0 | 0.0 | 0.0 | 0.00 | 0.02 | 0.00 | 1015.1 | ||
| 20260504081531 | 0 | 0.0 | 0.0 | 0.00 | 0.02 | 0.00 | 1015.1 | ||
| 20260504081428 | 0 | 0.0 | 0.0 | 0.00 | 0.02 | 0.00 | 1015.1 | ||
| 20260504081329 | 0 | 0.0 | 0.0 | 0.00 | 0.02 | 0.00 | 1015.1 | ||
| 20260504081228 | 0 | 0.0 | 0.0 | 0.00 | 0.02 | 0.00 | 1015.1 | ||
| 20260504081129 | 0 | 0.0 | 0.0 | 0.00 | 0.02 | 0.00 | 1015.2 | ||
| 20260504081029 | 0 | 0.0 | 0.0 | 0.00 | 0.02 | 0.00 | 1015.2 | ||
| 20260504080927 | 0 | 0.0 | 0.0 | 0.00 | 0.02 | 0.00 | 1015.2 | ||
| 20260504080828 | 0 | 0.0 | 0.0 | 0.00 | 0.02 | 0.00 | 1015.2 | ||
| 20260504080727 | 0 | 0.0 | 0.0 | 0.00 | 0.02 | 0.00 | 1015.2 | ||
| 20260504080628 | 0 | 0.0 | 0.0 | 0.00 | 0.02 | 0.00 | 1015.2 | ||
| 20260504080527 | 0 | 0.0 | 0.0 | 0.00 | 0.02 | 0.00 | 1015.3 | ||
| 20260504080425 | 0 | 0.0 | 0.0 | 0.00 | 0.02 | 0.00 | 1015.2 | ||
| 20260504080326 | 0 | 0.0 | 0.0 | 0.00 | 0.02 | 0.00 | 1015.3 | ||
| 20260504080225 | 64 | 0 | 0.0 | 0.0 | 0.00 | 0.02 | 0.00 | 72 | 1015.3 |
| 20260504080125 | 64 | 0 | 0.0 | 0.0 | 0.00 | 0.02 | 0.00 | 72 | 1015.4 |
| 20260504070403 | 0 | 0.0 | 0.0 | 0.00 | 0.02 | 0.00 | 1016.2 | ||
| 20260504070303 | 0 | 0.0 | 0.0 | 0.00 | 0.02 | 0.00 | 1016.3 | ||
| 20260504070203 | 0 | 0.0 | 0.0 | 0.00 | 0.02 | 0.00 | 1016.3 | ||
| 20260504060159 | 65 | 0 | 1.0 | 3.0 | 0.00 | 0.02 | 0.00 | 68 | 1016.6 |
| 20260504050746 | 66 | 0 | 0.0 | 1.0 | 0.00 | 0.02 | 0.00 | 67 | 1017.0 |
| 20260504050649 | 66 | 0 | 0.0 | 1.0 | 0.00 | 0.02 | 0.00 | 67 | 1017.0 |
| 20260504050547 | 66 | 0 | 0.0 | 1.0 | 0.00 | 0.02 | 0.00 | 68 | 1017.0 |
| 20260504050446 | 66 | 0 | 0.0 | 1.0 | 0.00 | 0.02 | 0.00 | 68 | 1017.0 |
| 20260504050347 | 66 | 0 | 0.0 | 1.0 | 0.00 | 0.02 | 0.00 | 68 | 1017.0 |
| 20260504050246 | 66 | 0 | 0.0 | 1.0 | 0.00 | 0.02 | 0.00 | 68 | 1017.0 |
| 20260504050147 | 66 | 0 | 0.0 | 1.0 | 0.00 | 0.02 | 0.00 | 68 | 1017.0 |
| 20260504045947 | 0 | 0.0 | 0.0 | 0.00 | 0.02 | 0.02 | 1016.9 | ||
| 20260504045845 | 0 | 0.0 | 0.0 | 0.00 | 0.02 | 0.02 | 1016.9 | ||
| 20260504045745 | 0 | 0 | 0.0 | 0.0 | 0.00 | 0.02 | 0.02 | 1016.9 | |
| 20260504045646 | 0 | 0 | 0.0 | 0.0 | 0.00 | 0.02 | 0.02 | 1017.1 | |
| 20260504045545 | 0 | 0 | 0.0 | 0.0 | 0.00 | 0.02 | 0.02 | 1017.1 | |
| 20260504045445 | 66 | 0 | 0.0 | 0.0 | 0.00 | 0.02 | 0.02 | 68 | 1017.1 |
| 20260504045344 | 66 | 0 | 0.0 | 0.0 | 0.00 | 0.02 | 0.02 | 68 | 1017.0 |
| 20260504045243 | 66 | 0 | 0.0 | 0.0 | 0.00 | 0.02 | 0.02 | 68 | 1017.1 |
| 20260504045144 | 66 | 0 | 0.0 | 0.0 | 0.00 | 0.02 | 0.02 | 68 | 1017.1 |
| 20260504045044 | 66 | 0 | 0.0 | 0.0 | 0.00 | 0.02 | 0.02 | 68 | 1017.1 |
| 20260504044943 | 66 | 0 | 0.0 | 0.0 | 0.00 | 0.02 | 0.02 | 68 | 1017.2 |
| 20260504044843 | 66 | 0 | 0.0 | 0.0 | 0.00 | 0.02 | 0.02 | 68 | 1017.2 |
| 20260504044744 | 66 | 0 | 0.0 | 0.0 | 0.00 | 0.02 | 0.02 | 68 | 1017.1 |
| 20260504044643 | 66 | 0 | 0.0 | 0.0 | 0.00 | 0.02 | 0.02 | 68 | 1017.2 |
| 20260504044543 | 66 | 0 | 0.0 | 0.0 | 0.00 | 0.02 | 0.02 | 68 | 1017.1 |
| 20260504044442 | 66 | 0 | 0.0 | 0.0 | 0.00 | 0.02 | 0.02 | 68 | 1017.1 |
| 20260504044344 | 66 | 0 | 0.0 | 0.0 | 0.00 | 0.02 | 0.02 | 68 | 1017.1 |
| 20260504044242 | 66 | 0 | 0.0 | 0.0 | 0.00 | 0.02 | 0.02 | 68 | 1017.0 |
| 20260504044143 | 0 | 0 | 0.0 | 0.0 | 0.00 | 0.02 | 0.02 | 1017.0 | |
| 20260504044044 | 0 | 0.0 | 0.0 | 0.00 | 0.02 | 0.02 | 1017.1 | ||
| 20260504043942 | 0 | 0.0 | 0.0 | 0.00 | 0.02 | 0.02 | 1017.1 | ||
| 20260504043842 | 67 | 0 | 0.0 | 0.0 | 0.00 | 0.02 | 0.02 | 66 | 1017.1 |
| 20260504043741 | 67 | 0 | 0.0 | 0.0 | 0.00 | 0.02 | 0.02 | 66 | 1017.1 |
| 20260504043642 | 67 | 0 | 0.0 | 0.0 | 0.00 | 0.02 | 0.02 | 66 | 1017.1 |
| 20260504043541 | 67 | 0 | 0.0 | 0.0 | 0.00 | 0.02 | 0.02 | 66 | 1017.1 |
| 20260504043439 | 67 | 0 | 0.0 | 0.0 | 0.00 | 0.02 | 0.02 | 66 | 1017.2 |
| 20260504043340 | 67 | 0 | 0.0 | 0.0 | 0.00 | 0.02 | 0.02 | 66 | 1017.2 |
| 20260504043239 | 67 | 0 | 0.0 | 0.0 | 0.00 | 0.02 | 0.02 | 66 | 1017.2 |
| 20260504043140 | 67 | 0 | 0.0 | 0.0 | 0.00 | 0.02 | 0.02 | 66 | 1017.2 |
| 20260504043031 | 67 | 0 | 0.0 | 0.0 | 0.00 | 0.02 | 0.02 | 66 | 1017.2 |
| 20260504042932 | 67 | 0 | 0.0 | 0.0 | 0.00 | 0.02 | 0.02 | 66 | 1017.2 |
| 20260504042831 | 67 | 0 | 0.0 | 0.0 | 0.00 | 0.02 | 0.02 | 66 | 1017.1 |
| 20260504042732 | 67 | 0 | 0.0 | 0.0 | 0.00 | 0.02 | 0.02 | 66 | 1017.1 |
| 20260504042632 | 67 | 0 | 0.0 | 0.0 | 0.00 | 0.02 | 0.02 | 61 | 1017.2 |
| 20260504042532 | 67 | 0 | 0.0 | 0.0 | 0.00 | 0.02 | 0.02 | 61 | 1017.2 |
| 20260504042432 | 67 | 0 | 0.0 | 0.0 | 0.00 | 0.02 | 0.02 | 61 | 1017.2 |
| 20260504042333 | 67 | 0 | 0.0 | 0.0 | 0.00 | 0.02 | 0.02 | 61 | 1017.3 |
| 20260504042210 | 67 | 0 | 0.0 | 0.0 | 0.00 | 0.02 | 0.02 | 61 | 1017.3 |
| 20260504042103 | 0 | 0.0 | 0.0 | 0.00 | 0.02 | 0.02 | 1017.3 | ||
| 20260504042004 | 0 | 0.0 | 0.0 | 0.00 | 0.02 | 0.02 | 1017.3 | ||
| 20260504041903 | 0 | 0.0 | 0.0 | 0.00 | 0.02 | 0.02 | 1017.4 | ||
| 20260504041803 | 0 | 0.0 | 0.0 | 0.00 | 0.02 | 0.02 | 1017.4 | ||
| 20260504041704 | 0 | 0.0 | 0.0 | 0.00 | 0.02 | 0.02 | 1017.3 | ||
| 20260504041604 | 0 | 0.0 | 0.0 | 0.00 | 0.02 | 0.02 | 1017.3 | ||
| 20260504041504 | 0 | 0.0 | 0.0 | 0.00 | 0.02 | 0.02 | 1017.3 | ||
| 20260504041404 | 0 | 0.0 | 0.0 | 0.00 | 0.02 | 0.02 | 1017.3 | ||
| 20260504041304 | 0 | 0.0 | 0.0 | 0.00 | 0.02 | 0.02 | 1017.3 | ||
| 20260504041204 | 0 | 0.0 | 0.0 | 0.00 | 0.02 | 0.02 | 1017.3 | ||
| 20260504041104 | 0 | 0.0 | 0.0 | 0.00 | 0.02 | 0.02 | 1017.3 | ||
| 20260504041004 | 0 | 0.0 | 0.0 | 0.00 | 0.02 | 0.02 | 1017.2 | ||
| 20260504040904 | 0 | 0.0 | 0.0 | 0.00 | 0.02 | 0.02 | 1017.3 | ||
| 20260504040803 | 0 | 0.0 | 0.0 | 0.00 | 0.02 | 0.02 | 1017.3 | ||
| 20260504040703 | 0 | 0.0 | 0.0 | 0.00 | 0.02 | 0.02 | 1017.3 | ||
| 20260504040604 | 0 | 0.0 | 0.0 | 0.00 | 0.02 | 0.02 | 1017.2 | ||
| 20260504040504 | 0 | 0.0 | 0.0 | 0.00 | 0.02 | 0.02 | 1017.1 | ||
| 20260504040403 | 0 | 0.0 | 0.0 | 0.00 | 0.02 | 0.02 | 1017.2 | ||
| 20260504040232 | 0 | 0.0 | 0.0 | 0.00 | 0.02 | 0.02 | 1017.2 | ||
| 20260504040131 | 0 | 0.0 | 0.0 | 0.00 | 0.02 | 0.02 | 1017.2 | ||
| 20260504040032 | 0 | 0.0 | 0.0 | 0.00 | 0.02 | 0.02 | 1017.1 | ||
| 20260504035931 | 0 | 0.0 | 0.0 | 0.00 | 0.02 | 0.02 | 1017.1 | ||
| 20260504035831 | 0 | 0.0 | 0.0 | 0.00 | 0.02 | 0.02 | 1017.2 | ||
| 20260504035731 | 0 | 0.0 | 0.0 | 0.00 | 0.02 | 0.02 | 1017.2 | ||
| 20260504035631 | 0 | 0.0 | 0.0 | 0.00 | 0.02 | 0.02 | 1017.2 | ||
| 20260504035531 | 0 | 0.0 | 0.0 | 0.00 | 0.02 | 0.02 | 1017.2 | ||
| 20260504035429 | 0 | 0.0 | 0.0 | 0.00 | 0.02 | 0.02 | 1017.2 | ||
| 20260504035329 | 0 | 0.0 | 0.0 | 0.00 | 0.02 | 0.02 | 1017.2 | ||
| 20260504035229 | 0 | 0.0 | 0.0 | 0.00 | 0.02 | 0.02 | 1017.2 | ||
| 20260504035129 | 0 | 0.0 | 0.0 | 0.00 | 0.02 | 0.02 | 1017.2 | ||
| 20260504035029 | 0 | 0.0 | 0.0 | 0.00 | 0.02 | 0.02 | 1017.1 | ||
| 20260504034928 | 0 | 0.0 | 0.0 | 0.00 | 0.02 | 0.02 | 1017.2 | ||
| 20260504034827 | 0 | 0.0 | 0.0 | 0.00 | 0.02 | 0.02 | 1017.2 | ||
| 20260504034729 | 0 | 0.0 | 0.0 | 0.00 | 0.02 | 0.02 | 1017.2 | ||
| 20260504034628 | 0 | 0.0 | 0.0 | 0.00 | 0.02 | 0.02 | 1017.3 | ||
| 20260504034528 | 0 | 0.0 | 0.0 | 0.00 | 0.02 | 0.02 | 1017.3 | ||
| 20260504034426 | 0 | 0.0 | 0.0 | 0.00 | 0.02 | 0.02 | 1017.3 | ||
| 20260504034325 | 0 | 0.0 | 0.0 | 0.00 | 0.02 | 0.02 | 1017.3 | ||
| 20260504034225 | 0 | 0.0 | 0.0 | 0.00 | 0.02 | 0.02 | 1017.3 | ||
| 20260504034125 | 0 | 0.0 | 0.0 | 0.00 | 0.02 | 0.02 | 1017.3 | ||
| 20260504034025 | 0 | 0.0 | 0.0 | 0.00 | 0.02 | 0.02 | 1017.4 | ||
| 20260504033923 | 0 | 0.0 | 0.0 | 0.00 | 0.02 | 0.02 | 1017.3 | ||
| 20260504033823 | 0 | 0.0 | 0.0 | 0.00 | 0.02 | 0.02 | 1017.4 | ||
| 20260504033723 | 0 | 0.0 | 0.0 | 0.00 | 0.02 | 0.02 | 1017.4 | ||
| 20260504033623 | 0 | 0.0 | 0.0 | 0.00 | 0.02 | 0.02 | 1017.4 | ||
| 20260504033523 | 0 | 0.0 | 0.0 | 0.00 | 0.02 | 0.02 | 1017.3 | ||
| 20260504033422 | 0 | 0.0 | 0.0 | 0.00 | 0.02 | 0.02 | 1017.4 | ||
| 20260504033321 | 0 | 0.0 | 0.0 | 0.00 | 0.02 | 0.02 | 1017.3 | ||
| 20260504033222 | 0 | 0.0 | 0.0 | 0.00 | 0.02 | 0.02 | 1017.2 | ||
| 20260504033121 | 0 | 0.0 | 0.0 | 0.00 | 0.02 | 0.02 | 1017.3 | ||
| 20260504033021 | 0 | 0.0 | 0.0 | 0.00 | 0.02 | 0.02 | 1017.3 | ||
| 20260504032920 | 0 | 0.0 | 0.0 | 0.00 | 0.02 | 0.02 | 1017.3 | ||
| 20260504032820 | 0 | 0.0 | 0.0 | 0.00 | 0.02 | 0.02 | 1017.3 | ||
| 20260504032720 | 0 | 0.0 | 0.0 | 0.00 | 0.02 | 0.02 | 1017.3 | ||
| 20260504032619 | 0 | 0.0 | 0.0 | 0.00 | 0.02 | 0.02 | 1017.3 | ||
| 20260504032520 | 0 | 0.0 | 0.0 | 0.00 | 0.02 | 0.02 | 1017.3 | ||
| 20260504032418 | 0 | 0.0 | 0.0 | 0.00 | 0.02 | 0.02 | 1017.3 | ||
| 20260504032319 | 69 | 0 | 0.0 | 0.0 | 0.00 | 0.02 | 0.02 | 61 | 1017.3 |
| 20260504032217 | 69 | 0 | 0.0 | 0.0 | 0.00 | 0.02 | 0.02 | 61 | 1017.2 |
| 20260504032119 | 69 | 0 | 0.0 | 0.0 | 0.00 | 0.02 | 0.02 | 61 | 1017.2 |
| 20260504032018 | 69 | 0 | 0.0 | 0.0 | 0.00 | 0.02 | 0.02 | 61 | 1017.2 |
| 20260504031916 | 69 | 0 | 0.0 | 0.0 | 0.00 | 0.02 | 0.02 | 61 | 1017.2 |
| 20260504031817 | 69 | 0 | 0.0 | 3.0 | 0.00 | 0.02 | 0.02 | 61 | 1017.2 |
| 20260504031716 | 69 | 0 | 0.0 | 3.0 | 0.00 | 0.02 | 0.02 | 61 | 1017.2 |
| 20260504031617 | 69 | 0 | 0.0 | 3.0 | 0.00 | 0.02 | 0.02 | 61 | 1017.2 |
| 20260504031516 | 69 | 0 | 0.0 | 3.0 | 0.00 | 0.02 | 0.02 | 61 | 1017.1 |
| 20260504031403 | 69 | 0 | 0.0 | 3.0 | 0.00 | 0.02 | 0.02 | 61 | 1017.1 |
| 20260504031303 | 69 | 0 | 0.0 | 3.0 | 0.00 | 0.02 | 0.02 | 61 | 1017.1 |
| 20260504031203 | 69 | 0 | 0.0 | 3.0 | 0.00 | 0.02 | 0.02 | 61 | 1017.1 |
| 20260504031103 | 69 | 0 | 0.0 | 3.0 | 0.00 | 0.02 | 0.02 | 61 | 1017.1 |
| 20260504031002 | 69 | 0 | 0.0 | 3.0 | 0.00 | 0.02 | 0.02 | 61 | 1017.2 |
| 20260504030901 | 69 | 0 | 1.0 | 3.0 | 0.00 | 0.02 | 0.02 | 61 | 1017.1 |
| 20260504030802 | 0 | 0 | 1.0 | 1.0 | 0.00 | 0.02 | 0.02 | 1017.2 | |
| 20260504030703 | 0 | 0.0 | 0.0 | 0.00 | 0.02 | 0.02 | 1017.1 | ||
| 20260504030603 | 0 | 0.0 | 0.0 | 0.00 | 0.02 | 0.02 | 1017.1 | ||
| 20260504030504 | 0 | 0.0 | 0.0 | 0.00 | 0.02 | 0.02 | 1017.0 | ||
| 20260504030403 | 0 | 0.0 | 0.0 | 0.00 | 0.02 | 0.02 | 1017.0 | ||
| 20260504030303 | 0 | 0.0 | 0.0 | 0.00 | 0.02 | 0.02 | 1017.0 | ||
| 20260504030204 | 0 | 0.0 | 0.0 | 0.00 | 0.02 | 0.02 | 1017.0 | ||
| 20260504030104 | 0 | 0.0 | 0.0 | 0.00 | 0.02 | 0.02 | 1017.0 | ||
| 20260504030003 | 0 | 0.0 | 0.0 | 0.00 | 0.02 | 0.02 | 1016.9 | ||
| 20260504025903 | 0 | 0.0 | 0.0 | 0.00 | 0.02 | 0.02 | 1017.0 | ||
| 20260504025803 | 0 | 0.0 | 0.0 | 0.00 | 0.02 | 0.02 | 1017.0 | ||
| 20260504025704 | 0 | 0.0 | 0.0 | 0.00 | 0.02 | 0.02 | 1017.0 | ||
| 20260504025603 | 0 | 0.0 | 0.0 | 0.00 | 0.02 | 0.02 | 1017.1 | ||
| 20260504025504 | 0 | 0.0 | 0.0 | 0.00 | 0.02 | 0.02 | 1017.0 | ||
| 20260504025403 | 0 | 0.0 | 0.0 | 0.00 | 0.02 | 0.02 | 1017.0 | ||
| 20260504025304 | 0 | 0.0 | 0.0 | 0.00 | 0.02 | 0.02 | 1017.0 | ||
| 20260504025203 | 0 | 0.0 | 0.0 | 0.00 | 0.02 | 0.02 | 1017.0 | ||
| 20260504025103 | 0 | 0.0 | 0.0 | 0.00 | 0.02 | 0.02 | 1017.0 | ||
| 20260504025003 | 0 | 0.0 | 0.0 | 0.00 | 0.02 | 0.02 | 1016.9 | ||
| 20260504024904 | 0 | 0.0 | 0.0 | 0.00 | 0.02 | 0.02 | 1017.0 | ||
| 20260504024803 | 0 | 0.0 | 0.0 | 0.00 | 0.02 | 0.02 | 1017.1 | ||
| 20260504024703 | 0 | 0.0 | 0.0 | 0.00 | 0.02 | 0.02 | 1017.1 | ||
| 20260504024603 | 0 | 0.0 | 0.0 | 0.00 | 0.02 | 0.02 | 1017.0 | ||
| 20260504024504 | 0 | 0.0 | 0.0 | 0.00 | 0.02 | 0.02 | 1017.0 | ||
| 20260504024402 | 0 | 0.0 | 0.0 | 0.00 | 0.02 | 0.02 | 1017.0 | ||
| 20260504024303 | 70 | 0 | 2.0 | 2.0 | 0.00 | 0.02 | 0.02 | 58 | 1017.0 |
| 20260504024203 | 70 | 0 | 2.0 | 4.0 | 0.00 | 0.02 | 0.02 | 58 | 1017.0 |
| 20260504024103 | 70 | 0 | 2.0 | 4.0 | 0.00 | 0.02 | 0.02 | 58 | 1017.0 |
| 20260504024002 | 70 | 0 | 2.0 | 4.0 | 0.00 | 0.02 | 0.02 | 58 | 1016.9 |
| 20260504023903 | 70 | 0 | 2.0 | 4.0 | 0.00 | 0.02 | 0.02 | 58 | 1017.0 |
| 20260504023804 | 70 | 0 | 2.0 | 4.0 | 0.00 | 0.02 | 0.02 | 58 | 1016.9 |
| 20260504023703 | 70 | 0 | 2.0 | 4.0 | 0.00 | 0.02 | 0.02 | 58 | 1017.0 |
| 20260504023604 | 70 | 0 | 2.0 | 4.0 | 0.00 | 0.02 | 0.02 | 58 | 1017.1 |
| 20260504023504 | 70 | 0 | 2.0 | 4.0 | 0.00 | 0.02 | 0.02 | 58 | 1017.0 |
| 20260504023403 | 70 | 0 | 2.0 | 4.0 | 0.00 | 0.02 | 0.02 | 58 | 1017.1 |
| 20260504023303 | 70 | 0 | 2.0 | 4.0 | 0.00 | 0.02 | 0.02 | 58 | 1017.1 |
| 20260504023202 | 70 | 0 | 2.0 | 4.0 | 0.00 | 0.02 | 0.02 | 58 | 1017.0 |
| 20260504023102 | 70 | 0 | 3.0 | 3.0 | 0.00 | 0.02 | 0.02 | 58 | 1017.1 |
| 20260504023003 | 70 | 0 | 0.0 | 0.0 | 0.00 | 0.02 | 0.02 | 58 | 1017.1 |
| 20260504022903 | 70 | 0 | 0.0 | 0.0 | 0.00 | 0.02 | 0.02 | 58 | 1017.1 |
| 20260504022803 | 70 | 0 | 0.0 | 4.0 | 0.00 | 0.02 | 0.02 | 58 | 1017.1 |
| 20260504022704 | 70 | 0 | 0.0 | 4.0 | 0.00 | 0.02 | 0.02 | 58 | 1017.1 |
| 20260504022603 | 70 | 0 | 0.0 | 7.0 | 0.00 | 0.02 | 0.02 | 58 | 1017.1 |
| 20260504022502 | 70 | 0 | 0.0 | 7.0 | 0.00 | 0.02 | 0.02 | 57 | 1017.0 |
| 20260504022404 | 71 | 0 | 2.0 | 7.0 | 0.00 | 0.02 | 0.02 | 57 | 1017.1 |
| 20260504022304 | 71 | 0 | 2.0 | 7.0 | 0.00 | 0.02 | 0.02 | 57 | 1017.1 |
| 20260504022132 | 71 | 0 | 2.0 | 7.0 | 0.00 | 0.02 | 0.02 | 57 | 1017.0 |
| 20260504022004 | 71 | 0 | 2.0 | 7.0 | 0.00 | 0.02 | 0.02 | 57 | 1017.0 |
| 20260504021902 | 71 | 0 | 2.0 | 7.0 | 0.00 | 0.02 | 0.02 | 57 | 1016.9 |
| 20260504021803 | 71 | 0 | 3.0 | 7.0 | 0.00 | 0.02 | 0.02 | 57 | 1016.9 |
| 20260504021702 | 71 | 0 | 4.0 | 7.0 | 0.00 | 0.02 | 0.02 | 57 | 1016.9 |
| 20260504021602 | 71 | 0 | 4.0 | 6.0 | 0.00 | 0.02 | 0.02 | 57 | 1017.0 |
| 20260504021504 | 71 | 0 | 3.0 | 5.0 | 0.00 | 0.02 | 0.02 | 57 | 1017.0 |
| 20260504021402 | 71 | 0 | 3.0 | 5.0 | 0.00 | 0.02 | 0.02 | 57 | 1016.9 |
| 20260504021303 | 71 | 0 | 3.0 | 5.0 | 0.00 | 0.02 | 0.02 | 57 | 1016.9 |
| 20260504021202 | 71 | 0 | 4.0 | 5.0 | 0.00 | 0.02 | 0.02 | 52 | 1016.9 |
| 20260504021102 | 0 | 0.0 | 0.0 | 0.00 | 0.02 | 0.02 | 1016.9 | ||
| 20260504021003 | 0 | 0.0 | 0.0 | 0.00 | 0.02 | 0.02 | 1016.9 | ||
| 20260504020901 | 0 | 0.0 | 0.0 | 0.00 | 0.02 | 0.02 | 1016.8 | ||
| 20260504020801 | 0 | 0.0 | 0.0 | 0.00 | 0.02 | 0.02 | 1016.9 | ||
| 20260504020701 | 0 | 0.0 | 0.0 | 0.00 | 0.02 | 0.02 | 1016.8 | ||
| 20260504020601 | 0 | 0.0 | 0.0 | 0.00 | 0.02 | 0.02 | 1016.9 | ||
| 20260504020501 | 0 | 0.0 | 0.0 | 0.00 | 0.02 | 0.02 | 1016.8 | ||
| 20260504020359 | 0 | 0.0 | 0.0 | 0.00 | 0.02 | 0.02 | 1016.8 | ||
| 20260504020301 | 0 | 0.0 | 0.0 | 0.00 | 0.02 | 0.02 | 1016.9 | ||
| 20260504020159 | 0 | 0.0 | 0.0 | 0.00 | 0.02 | 0.02 | 1016.9 | ||
| 20260504020000 | 0 | 0.0 | 0.0 | 0.00 | 0.02 | 0.02 | 1016.9 | ||
| 20260504015858 | 0 | 0.0 | 0.0 | 0.00 | 0.02 | 0.02 | 1016.9 | ||
| 20260504015757 | 0 | 0.0 | 0.0 | 0.00 | 0.02 | 0.02 | 1016.9 | ||
| 20260504015657 | 0 | 0.0 | 0.0 | 0.00 | 0.02 | 0.02 | 1016.8 | ||
| 20260504015558 | 0 | 0.0 | 0.0 | 0.00 | 0.02 | 0.02 | 1016.9 | ||
| 20260504015457 | 0 | 0.0 | 0.0 | 0.00 | 0.02 | 0.02 | 1016.9 | ||
| 20260504015355 | 0 | 0.0 | 0.0 | 0.00 | 0.02 | 0.02 | 1016.9 | ||
| 20260504015256 | 0 | 0.0 | 0.0 | 0.00 | 0.02 | 0.02 | 1016.9 | ||
| 20260504015156 | 0 | 0.0 | 0.0 | 0.00 | 0.02 | 0.02 | 1016.9 | ||
| 20260504015055 | 0 | 0.0 | 0.0 | 0.00 | 0.02 | 0.02 | 1016.9 | ||
| 20260504014955 | 0 | 0.0 | 0.0 | 0.00 | 0.02 | 0.02 | 1016.9 | ||
| 20260504014853 | 0 | 0.0 | 0.0 | 0.00 | 0.02 | 0.02 | 1016.9 | ||
| 20260504014754 | 0 | 0.0 | 0.0 | 0.00 | 0.02 | 0.02 | 1016.9 | ||
| 20260504014653 | 0 | 0.0 | 0.0 | 0.00 | 0.02 | 0.02 | 1016.9 | ||
| 20260504014554 | 0 | 0.0 | 0.0 | 0.00 | 0.02 | 0.02 | 1016.9 | ||
| 20260504014453 | 0 | 0.0 | 0.0 | 0.00 | 0.02 | 0.02 | 1016.9 | ||
| 20260504014351 | 0 | 0.0 | 0.0 | 0.00 | 0.02 | 0.02 | 1016.9 | ||
| 20260504014252 | 0 | 0.0 | 0.0 | 0.00 | 0.02 | 0.02 | 1016.9 | ||
| 20260504014152 | 0 | 0.0 | 0.0 | 0.00 | 0.02 | 0.02 | 1016.9 | ||
| 20260504014052 | 0 | 0.0 | 0.0 | 0.00 | 0.02 | 0.02 | 1016.9 | ||
| 20260504013952 | 0 | 0.0 | 0.0 | 0.00 | 0.02 | 0.02 | 1016.8 | ||
| 20260504013850 | 0 | 0.0 | 0.0 | 0.00 | 0.02 | 0.02 | 1016.8 | ||
| 20260504013751 | 0 | 0 | 4.0 | 4.0 | 0.00 | 0.02 | 0.02 | 1016.8 | |
| 20260504013650 | 0 | 0 | 4.0 | 4.0 | 0.00 | 0.02 | 0.02 | 1016.9 | |
| 20260504013551 | 0 | 0 | 4.0 | 4.0 | 0.00 | 0.02 | 0.02 | 1016.8 | |
| 20260504013450 | 0 | 0 | 4.0 | 4.0 | 0.00 | 0.02 | 0.02 | 1016.8 | |
| 20260504013348 | 0 | 0 | 4.0 | 4.0 | 0.00 | 0.02 | 0.02 | 1016.9 | |
| 20260504013249 | 72 | 0 | 4.0 | 9.0 | 0.00 | 0.02 | 0.02 | 52 | 1016.8 |
| 20260504013148 | 72 | 0 | 4.0 | 9.0 | 0.00 | 0.02 | 0.02 | 52 | 1016.8 |
| 20260504013048 | 72 | 0 | 4.0 | 9.0 | 0.00 | 0.02 | 0.02 | 52 | 1016.8 |
| 20260504012948 | 72 | 0 | 4.0 | 9.0 | 0.00 | 0.02 | 0.02 | 52 | 1016.8 |
| 20260504012849 | 72 | 0 | 4.0 | 9.0 | 0.00 | 0.02 | 0.02 | 52 | 1016.7 |
| 20260504012748 | 72 | 0 | 6.0 | 9.0 | 0.00 | 0.02 | 0.02 | 52 | 1016.7 |
| 20260504012649 | 72 | 0 | 6.0 | 9.0 | 0.00 | 0.02 | 0.02 | 52 | 1016.7 |
| 20260504012548 | 72 | 0 | 6.0 | 9.0 | 0.00 | 0.02 | 0.02 | 52 | 1016.6 |
| 20260504012448 | 72 | 0 | 6.0 | 9.0 | 0.00 | 0.02 | 0.02 | 52 | 1016.6 |
| 20260504012347 | 72 | 0 | 6.0 | 9.0 | 0.00 | 0.02 | 0.02 | 52 | 1016.6 |
| 20260504012247 | 73 | 0 | 5.0 | 7.0 | 0.00 | 0.02 | 0.02 | 52 | 1016.6 |
| 20260504012148 | 73 | 0 | 5.0 | 7.0 | 0.00 | 0.02 | 0.02 | 52 | 1016.6 |
| 20260504012049 | 73 | 0 | 3.0 | 7.0 | 0.00 | 0.02 | 0.02 | 52 | 1016.6 |
| 20260504011948 | 73 | 0 | 3.0 | 7.0 | 0.00 | 0.02 | 0.02 | 52 | 1016.7 |
| 20260504011846 | 73 | 0 | 3.0 | 7.0 | 0.00 | 0.02 | 0.02 | 52 | 1016.6 |
| 20260504011746 | 73 | 0 | 3.0 | 7.0 | 0.00 | 0.02 | 0.02 | 52 | 1016.6 |
| 20260504011646 | 73 | 0 | 3.0 | 7.0 | 0.00 | 0.02 | 0.02 | 52 | 1016.6 |
| 20260504011546 | 73 | 0 | 3.0 | 7.0 | 0.00 | 0.02 | 0.02 | 52 | 1016.6 |
| 20260504011446 | 73 | 0 | 3.0 | 7.0 | 0.00 | 0.02 | 0.02 | 52 | 1016.6 |
| 20260504011345 | 73 | 0 | 3.0 | 7.0 | 0.00 | 0.02 | 0.02 | 52 | 1016.6 |
| 20260504011246 | 73 | 0 | 3.0 | 6.0 | 0.00 | 0.02 | 0.02 | 53 | 1016.7 |
| 20260504011145 | 73 | 0 | 4.0 | 6.0 | 0.00 | 0.02 | 0.02 | 53 | 1016.6 |
| 20260504011046 | 73 | 0 | 2.0 | 5.0 | 0.00 | 0.02 | 0.02 | 52 | 1016.7 |
| 20260504010946 | 73 | 0 | 2.0 | 5.0 | 0.00 | 0.02 | 0.02 | 53 | 1016.6 |
| 20260504010846 | 73 | 0 | 4.0 | 5.0 | 0.00 | 0.02 | 0.02 | 52 | 1016.6 |
| 20260504010746 | 73 | 0 | 3.0 | 5.0 | 0.00 | 0.02 | 0.02 | 51 | 1016.6 |
| 20260504010645 | 73 | 0 | 3.0 | 4.0 | 0.00 | 0.02 | 0.02 | 51 | 1016.5 |
| 20260504010546 | 0 | 0.0 | 0.0 | 0.00 | 0.02 | 0.02 | 1016.6 | ||
| 20260504010447 | 0 | 0.0 | 0.0 | 0.00 | 0.02 | 0.02 | 1016.6 | ||
| 20260504010332 | 0 | 0.0 | 0.0 | 0.00 | 0.02 | 0.02 | 1016.6 | ||
| 20260504010232 | 0 | 0.0 | 0.0 | 0.00 | 0.02 | 0.02 | 1016.6 | ||
| 20260504010132 | 0 | 0.0 | 0.0 | 0.00 | 0.02 | 0.02 | 1016.6 | ||
| 20260504010034 | 0 | 0.0 | 0.0 | 0.00 | 0.02 | 0.02 | 1016.5 | ||
| 20260504005932 | 0 | 0.0 | 0.0 | 0.00 | 0.02 | 0.02 | 1016.5 | ||
| 20260504005832 | 0 | 0.0 | 0.0 | 0.00 | 0.02 | 0.02 | 1016.5 | ||
| 20260504005732 | 0 | 0.0 | 0.0 | 0.00 | 0.02 | 0.02 | 1016.4 | ||
| 20260504005633 | 0 | 0.0 | 0.0 | 0.00 | 0.02 | 0.02 | 1016.5 | ||
| 20260504005533 | 0 | 0.0 | 0.0 | 0.00 | 0.02 | 0.02 | 1016.5 | ||
| 20260504005404 | 0 | 0.0 | 0.0 | 0.00 | 0.02 | 0.02 | 1016.5 | ||
| 20260504005305 | 0 | 0.0 | 0.0 | 0.00 | 0.02 | 0.02 | 1016.5 | ||
| 20260504005204 | 0 | 0.0 | 0.0 | 0.00 | 0.02 | 0.02 | 1016.5 | ||
| 20260504005103 | 0 | 0.0 | 0.0 | 0.00 | 0.02 | 0.02 | 1016.6 | ||
| 20260504005002 | 0 | 0.0 | 0.0 | 0.00 | 0.02 | 0.02 | 1016.5 | ||
| 20260504004903 | 0 | 0.0 | 0.0 | 0.00 | 0.02 | 0.02 | 1016.5 | ||
| 20260504004803 | 0 | 0.0 | 0.0 | 0.00 | 0.02 | 0.02 | 1016.6 | ||
| 20260504004703 | 0 | 0.0 | 0.0 | 0.00 | 0.02 | 0.02 | 1016.6 | ||
| 20260504004603 | 0 | 0.0 | 0.0 | 0.00 | 0.02 | 0.02 | 1016.5 | ||
| 20260504004506 | 0 | 0.0 | 0.0 | 0.00 | 0.02 | 0.02 | 1016.6 | ||
| 20260504004404 | 0 | 0.0 | 0.0 | 0.00 | 0.02 | 0.02 | 1016.5 | ||
| 20260504004303 | 0 | 0.0 | 0.0 | 0.00 | 0.02 | 0.02 | 1016.6 | ||
| 20260504004203 | 74 | 169 | 1.0 | 3.0 | 0.00 | 0.02 | 0.02 | 51 | 1016.6 |
| 20260504004103 | 74 | 169 | 1.0 | 3.0 | 0.00 | 0.02 | 0.02 | 51 | 1016.6 |
| 20260504004003 | 74 | 169 | 1.0 | 3.0 | 0.00 | 0.02 | 0.02 | 51 | 1016.5 |
| 20260504003903 | 74 | 169 | 1.0 | 3.0 | 0.00 | 0.02 | 0.02 | 51 | 1016.5 |
| 20260504003803 | 74 | 169 | 1.0 | 3.0 | 0.00 | 0.02 | 0.02 | 51 | 1016.6 |
| 20260504003703 | 74 | 169 | 1.0 | 3.0 | 0.00 | 0.02 | 0.02 | 51 | 1016.5 |
| 20260504003603 | 74 | 169 | 1.0 | 3.0 | 0.00 | 0.02 | 0.02 | 51 | 1016.5 |
| 20260504003503 | 74 | 169 | 1.0 | 3.0 | 0.00 | 0.02 | 0.02 | 51 | 1016.5 |
| 20260504003404 | 74 | 169 | 1.0 | 3.0 | 0.00 | 0.02 | 0.02 | 51 | 1016.5 |
| 20260504003303 | 74 | 169 | 1.0 | 3.0 | 0.00 | 0.02 | 0.02 | 51 | 1016.6 |
| 20260504003205 | 74 | 169 | 1.0 | 3.0 | 0.00 | 0.02 | 0.02 | 50 | 1016.5 |
| 20260504003103 | 74 | 169 | 1.0 | 3.0 | 0.00 | 0.02 | 0.02 | 50 | 1016.5 |
| 20260504003002 | 74 | 168 | 2.0 | 3.0 | 0.00 | 0.02 | 0.02 | 50 | 1016.5 |
| 20260504002904 | 74 | 168 | 2.0 | 3.0 | 0.00 | 0.02 | 0.02 | 50 | 1016.4 |
| 20260504002803 | 74 | 169 | 2.0 | 3.0 | 0.00 | 0.02 | 0.02 | 46 | 1016.5 |
| 20260504002703 | 74 | 171 | 2.0 | 3.0 | 0.00 | 0.02 | 0.02 | 46 | 1016.5 |
| 20260504002603 | 0 | 0.0 | 0.0 | 0.00 | 0.02 | 0.02 | 1016.5 | ||
| 20260504002504 | 0 | 0.0 | 0.0 | 0.00 | 0.02 | 0.02 | 1016.5 | ||
| 20260504002404 | 0 | 0.0 | 0.0 | 0.00 | 0.02 | 0.02 | 1016.5 | ||
| 20260504002304 | 0 | 0.0 | 0.0 | 0.00 | 0.02 | 0.02 | 1016.6 | ||
| 20260504002204 | 0 | 0.0 | 0.0 | 0.00 | 0.02 | 0.02 | 1016.6 | ||
| 20260504002104 | 0 | 0.0 | 0.0 | 0.00 | 0.02 | 0.02 | 1016.6 | ||
| 20260504002005 | 0 | 0.0 | 0.0 | 0.00 | 0.02 | 0.02 | 1016.5 | ||
| 20260504001903 | 0 | 0.0 | 0.0 | 0.00 | 0.02 | 0.02 | 1016.5 | ||
| 20260504001803 | 0 | 0.0 | 0.0 | 0.00 | 0.02 | 0.02 | 1016.5 | ||
| 20260504001703 | 0 | 0.0 | 0.0 | 0.00 | 0.02 | 0.02 | 1016.6 | ||
| 20260504001603 | 0 | 0.0 | 0.0 | 0.00 | 0.02 | 0.02 | 1016.6 | ||
| 20260504001503 | 0 | 0.0 | 0.0 | 0.00 | 0.02 | 0.02 | 1016.5 | ||
| 20260504001403 | 0 | 0.0 | 0.0 | 0.00 | 0.02 | 0.02 | 1016.5 | ||
| 20260504001304 | 0 | 0.0 | 0.0 | 0.00 | 0.02 | 0.02 | 1016.5 | ||
| 20260504001203 | 0 | 0.0 | 0.0 | 0.00 | 0.02 | 0.02 | 1016.5 | ||
| 20260504001103 | 0 | 0.0 | 0.0 | 0.00 | 0.02 | 0.02 | 1016.4 | ||
| 20260504001003 | 0 | 0.0 | 0.0 | 0.00 | 0.02 | 0.02 | 1016.5 | ||
| 20260504000904 | 0 | 0.0 | 0.0 | 0.00 | 0.02 | 0.02 | 1016.5 | ||
| 20260504000803 | 0 | 0.0 | 0.0 | 0.00 | 0.02 | 0.02 | 1016.5 | ||
| 20260504000704 | 0 | 0.0 | 0.0 | 0.00 | 0.02 | 0.02 | 1016.6 | ||
| 20260504000604 | 0 | 0.0 | 0.0 | 0.00 | 0.02 | 0.02 | 1016.6 | ||
| 20260504000504 | 0 | 0.0 | 0.0 | 0.00 | 0.02 | 0.02 | 1016.6 | ||
| 20260504000403 | 0 | 0.0 | 0.0 | 0.00 | 0.02 | 0.02 | 1016.6 | ||
| 20260504000303 | 0 | 0.0 | 0.0 | 0.00 | 0.02 | 0.02 | 1016.6 | ||
| 20260504000204 | 0 | 0.0 | 0.0 | 0.00 | 0.02 | 0.02 | 1016.7 | ||
| 20260504000104 | 0 | 0.0 | 0.0 | 0.00 | 0.03 | 0.02 | 1016.6 | ||
| 20260504000004 | 0 | 0.0 | 0.0 | 0.00 | 0.03 | 0.02 | 1016.6 | ||
| 20260503235903 | 0 | 0.0 | 0.0 | 0.00 | 0.03 | 0.02 | 1016.6 | ||
| 20260503235803 | 0 | 0.0 | 0.0 | 0.00 | 0.03 | 0.02 | 1016.7 | ||
| 20260503235704 | 0 | 0.0 | 0.0 | 0.00 | 0.03 | 0.02 | 1016.7 | ||
| 20260503235603 | 0 | 0.0 | 0.0 | 0.00 | 0.03 | 0.02 | 1016.7 | ||
| 20260503235505 | 0 | 0.0 | 0.0 | 0.00 | 0.03 | 0.02 | 1016.6 | ||
| 20260503235403 | 0 | 210 | 6.0 | 6.0 | 0.00 | 0.03 | 0.02 | 1016.7 | |
| 20260503235304 | 77 | 210 | 6.0 | 10.0 | 0.00 | 0.03 | 0.02 | 46 | 1016.7 |
| 20260503235203 | 77 | 210 | 6.0 | 10.0 | 0.00 | 0.03 | 0.02 | 46 | 1016.6 |
| 20260503235103 | 77 | 210 | 6.0 | 10.0 | 0.00 | 0.03 | 0.02 | 46 | 1016.7 |
| 20260503235003 | 77 | 210 | 6.0 | 10.0 | 0.00 | 0.03 | 0.02 | 46 | 1016.6 |
| 20260503234904 | 77 | 210 | 6.0 | 10.0 | 0.00 | 0.03 | 0.02 | 46 | 1016.6 |
| 20260503234804 | 77 | 210 | 6.0 | 10.0 | 0.00 | 0.03 | 0.02 | 46 | 1016.5 |
| 20260503234703 | 77 | 210 | 6.0 | 10.0 | 0.00 | 0.03 | 0.02 | 46 | 1016.5 |
| 20260503234603 | 77 | 210 | 6.0 | 10.0 | 0.00 | 0.03 | 0.02 | 46 | 1016.6 |
| 20260503234504 | 77 | 210 | 6.0 | 10.0 | 0.00 | 0.03 | 0.02 | 46 | 1016.6 |
| 20260503234401 | 77 | 212 | 6.0 | 10.0 | 0.00 | 0.03 | 0.02 | 46 | 1016.5 |
| 20260503234303 | 77 | 231 | 5.0 | 7.0 | 0.00 | 0.03 | 0.02 | 46 | 1016.6 |
| 20260503234203 | 77 | 179 | 4.0 | 7.0 | 0.00 | 0.03 | 0.02 | 46 | 1016.6 |
| 20260503234102 | 77 | 178 | 5.0 | 7.0 | 0.00 | 0.03 | 0.02 | 46 | 1016.7 |
| 20260503234004 | 77 | 204 | 5.0 | 6.0 | 0.00 | 0.03 | 0.02 | 46 | 1016.7 |
| 20260503233904 | 77 | 196 | 5.0 | 6.0 | 0.00 | 0.03 | 0.02 | 46 | 1016.7 |
| 20260503233803 | 77 | 179 | 4.0 | 5.0 | 0.00 | 0.03 | 0.02 | 46 | 1016.7 |
| 20260503233704 | 77 | 183 | 5.0 | 5.0 | 0.00 | 0.03 | 0.02 | 46 | 1016.7 |
| 20260503233604 | 0 | 0.0 | 0.0 | 0.00 | 0.03 | 0.02 | 1016.7 | ||
| 20260503233503 | 0 | 0.0 | 0.0 | 0.00 | 0.03 | 0.02 | 1016.6 | ||
| 20260503233403 | 0 | 0.0 | 0.0 | 0.00 | 0.03 | 0.02 | 1016.7 | ||
| 20260503233303 | 0 | 0.0 | 0.0 | 0.00 | 0.03 | 0.02 | 1016.7 | ||
| 20260503233203 | 0 | 0.0 | 0.0 | 0.00 | 0.03 | 0.02 | 1016.7 | ||
| 20260503233103 | 0 | 0.0 | 0.0 | 0.00 | 0.03 | 0.02 | 1016.8 | ||
| 20260503233004 | 0 | 0.0 | 0.0 | 0.00 | 0.03 | 0.02 | 1016.8 | ||
| 20260503232903 | 0 | 0.0 | 0.0 | 0.00 | 0.03 | 0.02 | 1016.7 | ||
| 20260503232803 | 78 | 172 | 3.0 | 4.0 | 0.00 | 0.03 | 0.02 | 43 | 1016.8 |
| 20260503232703 | 78 | 172 | 3.0 | 5.0 | 0.00 | 0.03 | 0.02 | 43 | 1016.8 |
| 20260503232603 | 78 | 172 | 3.0 | 5.0 | 0.00 | 0.03 | 0.02 | 43 | 1016.8 |
| 20260503232503 | 78 | 172 | 3.0 | 7.0 | 0.00 | 0.03 | 0.02 | 43 | 1016.8 |
| 20260503232404 | 78 | 172 | 3.0 | 7.0 | 0.00 | 0.03 | 0.02 | 43 | 1016.8 |
| 20260503232305 | 78 | 172 | 3.0 | 11.0 | 0.00 | 0.03 | 0.02 | 43 | 1016.9 |
| 20260503232203 | 78 | 172 | 3.0 | 11.0 | 0.00 | 0.03 | 0.02 | 43 | 1016.8 |
| 20260503232102 | 78 | 172 | 3.0 | 11.0 | 0.00 | 0.03 | 0.02 | 43 | 1016.8 |
| 20260503232004 | 78 | 172 | 3.0 | 11.0 | 0.00 | 0.03 | 0.02 | 43 | 1016.8 |
| 20260503231903 | 78 | 172 | 3.0 | 11.0 | 0.00 | 0.03 | 0.02 | 43 | 1016.8 |
| 20260503231803 | 78 | 172 | 3.0 | 11.0 | 0.00 | 0.03 | 0.02 | 44 | 1016.8 |
| 20260503231702 | 78 | 152 | 3.0 | 11.0 | 0.00 | 0.03 | 0.02 | 42 | 1016.8 |
| 20260503231604 | 78 | 186 | 3.0 | 11.0 | 0.00 | 0.03 | 0.02 | 43 | 1016.8 |
| 20260503231503 | 78 | 196 | 5.0 | 11.0 | 0.00 | 0.03 | 0.02 | 44 | 1016.8 |
| 20260503231403 | 78 | 203 | 6.0 | 11.0 | 0.00 | 0.03 | 0.02 | 42 | 1016.7 |
| 20260503231302 | 78 | 204 | 5.0 | 9.0 | 0.00 | 0.03 | 0.02 | 42 | 1016.7 |
| 20260503231202 | 78 | 179 | 5.0 | 9.0 | 0.00 | 0.03 | 0.02 | 42 | 1016.7 |
| 20260503231103 | 78 | 176 | 4.0 | 4.0 | 0.00 | 0.03 | 0.02 | 39 | 1016.7 |
| 20260503231005 | 0 | 0.0 | 0.0 | 0.00 | 0.03 | 0.02 | 1016.7 | ||
| 20260503230903 | 0 | 0.0 | 0.0 | 0.00 | 0.03 | 0.02 | 1016.6 | ||
| 20260503230803 | 0 | 0.0 | 0.0 | 0.00 | 0.03 | 0.02 | 1016.6 | ||
| 20260503230703 | 0 | 0.0 | 0.0 | 0.00 | 0.03 | 0.02 | 1016.7 | ||
| 20260503230603 | 0 | 0.0 | 0.0 | 0.00 | 0.03 | 0.02 | 1016.7 | ||
| 20260503230504 | 0 | 0.0 | 0.0 | 0.00 | 0.03 | 0.02 | 1016.7 | ||
| 20260503230403 | 0 | 0.0 | 0.0 | 0.00 | 0.03 | 0.02 | 1016.6 | ||
| 20260503230302 | 0 | 0.0 | 0.0 | 0.00 | 0.03 | 0.02 | 1016.7 | ||
| 20260503230203 | 0 | 0.0 | 0.0 | 0.00 | 0.03 | 0.02 | 1016.7 | ||
| 20260503230104 | 0 | 0.0 | 0.0 | 0.00 | 0.03 | 0.02 | 1016.7 | ||
| 20260503230004 | 0 | 0.0 | 0.0 | 0.00 | 0.03 | 0.02 | 1016.7 | ||
| 20260503225903 | 0 | 0.0 | 0.0 | 0.00 | 0.03 | 0.02 | 1016.7 | ||
| 20260503225803 | 0 | 0.0 | 0.0 | 0.00 | 0.03 | 0.02 | 1016.8 | ||
| 20260503225704 | 0 | 0.0 | 0.0 | 0.00 | 0.03 | 0.02 | 1016.8 | ||
| 20260503225604 | 0 | 0.0 | 0.0 | 0.00 | 0.03 | 0.02 | 1016.9 | ||
| 20260503225504 | 0 | 0.0 | 0.0 | 0.00 | 0.03 | 0.02 | 1016.8 | ||
| 20260503225404 | 0 | 0.0 | 0.0 | 0.00 | 0.03 | 0.02 | 1016.9 | ||
| 20260503225304 | 0 | 0.0 | 0.0 | 0.00 | 0.03 | 0.02 | 1017.0 | ||
| 20260503225204 | 0 | 0.0 | 0.0 | 0.00 | 0.03 | 0.02 | 1017.0 | ||
| 20260503225103 | 0 | 0.0 | 0.0 | 0.00 | 0.03 | 0.02 | 1017.0 | ||
| 20260503225004 | 0 | 0.0 | 0.0 | 0.00 | 0.03 | 0.02 | 1016.9 | ||
| 20260503224903 | 0 | 0.0 | 0.0 | 0.00 | 0.03 | 0.02 | 1016.9 | ||
| 20260503224803 | 0 | 0.0 | 0.0 | 0.00 | 0.03 | 0.02 | 1016.9 | ||
| 20260503224704 | 0 | 0.0 | 0.0 | 0.00 | 0.03 | 0.02 | 1017.0 | ||
| 20260503224603 | 0 | 0.0 | 0.0 | 0.00 | 0.03 | 0.02 | 1017.0 | ||
| 20260503224504 | 0 | 0.0 | 0.0 | 0.00 | 0.03 | 0.02 | 1017.0 | ||
| 20260503224403 | 0 | 0.0 | 0.0 | 0.00 | 0.03 | 0.02 | 1016.9 | ||
| 20260503224304 | 0 | 0.0 | 0.0 | 0.00 | 0.03 | 0.02 | 1017.0 | ||
| 20260503224203 | 0 | 0.0 | 0.0 | 0.00 | 0.03 | 0.02 | 1016.9 | ||
| 20260503224103 | 0 | 0.0 | 0.0 | 0.00 | 0.03 | 0.02 | 1017.0 | ||
| 20260503224004 | 0 | 0.0 | 0.0 | 0.00 | 0.03 | 0.02 | 1017.0 | ||
| 20260503223903 | 0 | 0.0 | 0.0 | 0.00 | 0.03 | 0.02 | 1016.9 | ||
| 20260503223801 | 0 | 0.0 | 0.0 | 0.00 | 0.03 | 0.02 | 1017.0 | ||
| 20260503223632 | 78 | 182 | 2.0 | 3.0 | 0.00 | 0.03 | 0.02 | 39 | 1017.0 |
| 20260503223532 | 78 | 182 | 2.0 | 5.0 | 0.00 | 0.03 | 0.02 | 39 | 1017.0 |
| 20260503223432 | 78 | 182 | 2.0 | 5.0 | 0.00 | 0.03 | 0.02 | 39 | 1017.0 |
| 20260503223332 | 78 | 182 | 2.0 | 5.0 | 0.00 | 0.03 | 0.02 | 39 | 1017.0 |
| 20260503223232 | 78 | 182 | 2.0 | 10.0 | 0.00 | 0.03 | 0.02 | 39 | 1017.0 |
| 20260503223132 | 78 | 182 | 2.0 | 10.0 | 0.00 | 0.03 | 0.02 | 39 | 1017.0 |
| 20260503223032 | 78 | 182 | 2.0 | 10.0 | 0.00 | 0.03 | 0.02 | 39 | 1017.0 |
| 20260503222932 | 78 | 182 | 2.0 | 10.0 | 0.00 | 0.03 | 0.02 | 39 | 1017.0 |
| 20260503222831 | 78 | 182 | 2.0 | 10.0 | 0.00 | 0.03 | 0.02 | 39 | 1017.0 |
| 20260503222732 | 78 | 182 | 2.0 | 10.0 | 0.00 | 0.03 | 0.02 | 39 | 1017.0 |
| 20260503222631 | 78 | 182 | 2.0 | 10.0 | 0.00 | 0.03 | 0.02 | 40 | 1017.0 |
| 20260503222532 | 78 | 185 | 2.0 | 10.0 | 0.00 | 0.03 | 0.02 | 40 | 1017.1 |
| 20260503222431 | 78 | 185 | 4.0 | 10.0 | 0.00 | 0.03 | 0.02 | 39 | 1017.3 |
| 20260503222330 | 78 | 185 | 4.0 | 10.0 | 0.00 | 0.03 | 0.02 | 42 | 1017.3 |
| 20260503222231 | 78 | 183 | 4.0 | 9.0 | 0.00 | 0.03 | 0.02 | 41 | 1017.3 |
| 20260503222131 | 78 | 169 | 5.0 | 9.0 | 0.00 | 0.03 | 0.02 | 39 | 1017.2 |
| 20260503222032 | 78 | 175 | 4.0 | 7.0 | 0.00 | 0.03 | 0.02 | 39 | 1017.3 |
| 20260503221932 | 79 | 197 | 4.0 | 7.0 | 0.00 | 0.03 | 0.02 | 39 | 1017.3 |
| 20260503221832 | 79 | 197 | 4.0 | 7.0 | 0.00 | 0.03 | 0.02 | 39 | 1017.3 |
| 20260503221732 | 79 | 197 | 4.0 | 7.0 | 0.00 | 0.03 | 0.02 | 39 | 1017.4 |
| 20260503221632 | 79 | 197 | 4.0 | 7.0 | 0.00 | 0.03 | 0.02 | 39 | 1017.3 |
| 20260503221532 | 79 | 197 | 4.0 | 7.0 | 0.00 | 0.03 | 0.02 | 39 | 1017.3 |
| 20260503221432 | 79 | 197 | 4.0 | 7.0 | 0.00 | 0.03 | 0.02 | 39 | 1017.4 |
| 20260503221331 | 79 | 197 | 4.0 | 7.0 | 0.00 | 0.03 | 0.02 | 39 | 1017.4 |
| 20260503221203 | 79 | 169 | 2.0 | 6.0 | 0.00 | 0.03 | 0.02 | 39 | 1017.5 |
| 20260503221105 | 79 | 137 | 2.0 | 6.0 | 0.00 | 0.03 | 0.02 | 40 | 1017.4 |
| 20260503221004 | 79 | 175 | 3.0 | 6.0 | 0.00 | 0.03 | 0.02 | 40 | 1017.4 |
| 20260503220902 | 79 | 175 | 3.0 | 5.0 | 0.00 | 0.03 | 0.02 | 41 | 1017.4 |
| 20260503220803 | 79 | 141 | 3.0 | 4.0 | 0.00 | 0.03 | 0.02 | 42 | 1017.2 |
| 20260503220703 | 79 | 142 | 3.0 | 4.0 | 0.00 | 0.03 | 0.02 | 41 | 1017.3 |
| 20260503220604 | 79 | 149 | 3.0 | 4.0 | 0.00 | 0.03 | 0.02 | 41 | 1017.3 |
| 20260503220504 | 0 | 0.0 | 0.0 | 0.00 | 0.03 | 0.02 | 1017.3 | ||
| 20260503220404 | 0 | 0.0 | 0.0 | 0.00 | 0.03 | 0.02 | 1017.3 | ||
| 20260503220303 | 0 | 0.0 | 0.0 | 0.00 | 0.03 | 0.02 | 1017.3 | ||
| 20260503220203 | 0 | 0.0 | 0.0 | 0.00 | 0.03 | 0.02 | 1017.3 | ||
| 20260503220056 | 0 | 0.0 | 0.0 | 0.00 | 0.03 | 0.02 | 1017.3 | ||
| 20260503215955 | 0 | 0.0 | 0.0 | 0.00 | 0.03 | 0.02 | 1017.3 | ||
| 20260503215855 | 0 | 0.0 | 0.0 | 0.00 | 0.03 | 0.02 | 1017.3 | ||
| 20260503215753 | 0 | 0.0 | 0.0 | 0.00 | 0.03 | 0.02 | 1017.3 | ||
| 20260503215654 | 0 | 0.0 | 0.0 | 0.00 | 0.03 | 0.02 | 1017.3 | ||
| 20260503215553 | 0 | 0.0 | 0.0 | 0.00 | 0.03 | 0.02 | 1017.3 | ||
| 20260503215454 | 0 | 0.0 | 0.0 | 0.00 | 0.03 | 0.02 | 1017.3 | ||
| 20260503215354 | 0 | 0.0 | 0.0 | 0.00 | 0.03 | 0.02 | 1017.4 | ||
| 20260503215252 | 0 | 0.0 | 0.0 | 0.00 | 0.03 | 0.02 | 1017.3 | ||
| 20260503215152 | 0 | 0.0 | 0.0 | 0.00 | 0.03 | 0.02 | 1017.2 | ||
| 20260503215052 | 0 | 0.0 | 0.0 | 0.00 | 0.03 | 0.02 | 1017.2 | ||
| 20260503214952 | 0 | 0.0 | 0.0 | 0.00 | 0.04 | 0.02 | 1017.3 | ||
| 20260503214851 | 0 | 0.0 | 0.0 | 0.00 | 0.04 | 0.02 | 1017.3 | ||
| 20260503214750 | 0 | 0.0 | 0.0 | 0.00 | 0.04 | 0.02 | 1017.3 | ||
| 20260503214651 | 0 | 0.0 | 0.0 | 0.00 | 0.04 | 0.02 | 1017.2 | ||
| 20260503214549 | 0 | 0.0 | 0.0 | 0.00 | 0.04 | 0.02 | 1017.3 | ||
| 20260503214451 | 0 | 0.0 | 0.0 | 0.00 | 0.04 | 0.02 | 1017.4 | ||
| 20260503214350 | 0 | 0.0 | 0.0 | 0.00 | 0.04 | 0.02 | 1017.4 | ||
| 20260503214248 | 0 | 0.0 | 0.0 | 0.00 | 0.04 | 0.02 | 1017.4 | ||
| 20260503214148 | 0 | 0.0 | 0.0 | 0.00 | 0.04 | 0.02 | 1017.4 | ||
| 20260503214048 | 0 | 0.0 | 0.0 | 0.00 | 0.04 | 0.02 | 1017.5 | ||
| 20260503213948 | 0 | 0.0 | 0.0 | 0.00 | 0.04 | 0.02 | 1017.5 | ||
| 20260503213848 | 0 | 0.0 | 0.0 | 0.00 | 0.04 | 0.02 | 1017.5 | ||
| 20260503213747 | 0 | 0.0 | 0.0 | 0.00 | 0.04 | 0.02 | 1017.6 | ||
| 20260503213646 | 0 | 0.0 | 0.0 | 0.00 | 0.04 | 0.02 | 1017.6 | ||
| 20260503213546 | 0 | 0.0 | 0.0 | 0.00 | 0.04 | 0.02 | 1017.7 | ||
| 20260503213446 | 0 | 0.0 | 0.0 | 0.00 | 0.04 | 0.02 | 1017.7 | ||
| 20260503213346 | 0 | 0.0 | 0.0 | 0.00 | 0.04 | 0.02 | 1017.7 | ||
| 20260503213245 | 0 | 0.0 | 0.0 | 0.00 | 0.04 | 0.02 | 1017.8 | ||
| 20260503213144 | 0 | 189 | 4.0 | 7.0 | 0.00 | 0.04 | 0.02 | 1017.7 | |
| 20260503213045 | 79 | 189 | 4.0 | 7.0 | 0.00 | 0.04 | 0.02 | 39 | 1017.7 |
| 20260503212945 | 79 | 189 | 4.0 | 7.0 | 0.00 | 0.04 | 0.02 | 39 | 1017.8 |
| 20260503212845 | 79 | 189 | 4.0 | 7.0 | 0.00 | 0.04 | 0.02 | 39 | 1017.8 |
| 20260503212743 | 79 | 189 | 4.0 | 7.0 | 0.00 | 0.04 | 0.02 | 39 | 1017.7 |
| 20260503212642 | 79 | 189 | 4.0 | 7.0 | 0.00 | 0.04 | 0.02 | 39 | 1017.8 |
| 20260503212543 | 79 | 189 | 4.0 | 7.0 | 0.00 | 0.04 | 0.02 | 39 | 1017.8 |
| 20260503212442 | 79 | 189 | 4.0 | 7.0 | 0.00 | 0.04 | 0.02 | 39 | 1017.8 |
| 20260503212343 | 79 | 189 | 4.0 | 7.0 | 0.00 | 0.04 | 0.02 | 39 | 1017.8 |
| 20260503212242 | 79 | 189 | 4.0 | 7.0 | 0.00 | 0.04 | 0.02 | 39 | 1017.8 |
| 20260503212143 | 79 | 207 | 2.0 | 6.0 | 0.00 | 0.04 | 0.02 | 39 | 1017.9 |
| 20260503212042 | 79 | 204 | 2.0 | 6.0 | 0.00 | 0.04 | 0.02 | 39 | 1017.8 |
| 20260503211941 | 79 | 168 | 0.0 | 6.0 | 0.00 | 0.04 | 0.02 | 39 | 1017.9 |
| 20260503211843 | 79 | 214 | 3.0 | 6.0 | 0.00 | 0.04 | 0.02 | 39 | 1017.9 |
| 20260503211742 | 79 | 214 | 3.0 | 6.0 | 0.00 | 0.04 | 0.02 | 39 | 1017.9 |
| 20260503211642 | 79 | 214 | 3.0 | 6.0 | 0.00 | 0.04 | 0.02 | 39 | 1017.9 |
| 20260503211542 | 79 | 178 | 3.0 | 5.0 | 0.00 | 0.04 | 0.02 | 39 | 1017.9 |
| 20260503211443 | 79 | 178 | 2.0 | 5.0 | 0.00 | 0.04 | 0.02 | 39 | 1017.9 |
| 20260503211343 | 79 | 165 | 0.0 | 0.0 | 0.00 | 0.04 | 0.02 | 39 | 1018.0 |
| 20260503211242 | 0 | 0.0 | 0.0 | 0.00 | 0.04 | 0.02 | 1018.0 | ||
| 20260503211142 | 0 | 0.0 | 0.0 | 0.00 | 0.04 | 0.02 | 1017.9 | ||
| 20260503211040 | 0 | 0.0 | 0.0 | 0.00 | 0.04 | 0.02 | 1017.9 | ||
| 20260503210941 | 0 | 0.0 | 0.0 | 0.00 | 0.04 | 0.02 | 1017.9 | ||
| 20260503210841 | 0 | 0.0 | 0.0 | 0.00 | 0.04 | 0.02 | 1018.0 | ||
| 20260503210740 | 0 | 0.0 | 0.0 | 0.00 | 0.04 | 0.02 | 1017.9 | ||
| 20260503210641 | 0 | 0.0 | 0.0 | 0.00 | 0.04 | 0.02 | 1017.9 | ||
| 20260503210539 | 0 | 0.0 | 0.0 | 0.00 | 0.04 | 0.02 | 1018.0 | ||
| 20260503210439 | 0 | 0.0 | 0.0 | 0.00 | 0.04 | 0.02 | 1018.0 | ||
| 20260503210338 | 0 | 0.0 | 0.0 | 0.00 | 0.04 | 0.02 | 1018.0 | ||
| 20260503210240 | 0 | 0.0 | 0.0 | 0.00 | 0.04 | 0.02 | 1018.0 | ||
| 20260503210139 | 0 | 0.0 | 0.0 | 0.00 | 0.04 | 0.02 | 1018.1 | ||
| 20260503210036 | 0 | 0.0 | 0.0 | 0.00 | 0.04 | 0.02 | 1018.0 | ||
| 20260503205935 | 0 | 0.0 | 0.0 | 0.00 | 0.04 | 0.02 | 1018.0 | ||
| 20260503205834 | 0 | 0.0 | 0.0 | 0.00 | 0.04 | 0.02 | 1018.0 | ||
| 20260503205735 | 0 | 0.0 | 0.0 | 0.00 | 0.04 | 0.02 | 1018.0 | ||
| 20260503205635 | 0 | 0.0 | 0.0 | 0.00 | 0.04 | 0.02 | 1018.0 | ||
| 20260503205533 | 0 | 0.0 | 0.0 | 0.00 | 0.04 | 0.02 | 1018.0 | ||
| 20260503205433 | 0 | 0.0 | 0.0 | 0.00 | 0.04 | 0.02 | 1018.0 | ||
| 20260503205332 | 0 | 0.0 | 0.0 | 0.00 | 0.04 | 0.02 | 1018.1 | ||
| 20260503205231 | 0 | 0.0 | 0.0 | 0.00 | 0.04 | 0.02 | 1018.2 | ||
| 20260503205132 | 0 | 0.0 | 0.0 | 0.00 | 0.04 | 0.02 | 1018.1 | ||
| 20260503205004 | 0 | 0.0 | 0.0 | 0.00 | 0.04 | 0.02 | 1018.2 | ||
| 20260503204902 | 0 | 0.0 | 0.0 | 0.00 | 0.04 | 0.02 | 1018.1 | ||
| 20260503204804 | 0 | 0.0 | 0.0 | 0.00 | 0.04 | 0.02 | 1018.1 | ||
| 20260503204703 | 0 | 0.0 | 0.0 | 0.00 | 0.05 | 0.02 | 1018.1 | ||
| 20260503204603 | 0 | 0.0 | 0.0 | 0.00 | 0.05 | 0.02 | 1018.1 | ||
| 20260503204503 | 0 | 0.0 | 0.0 | 0.00 | 0.05 | 0.02 | 1018.2 | ||
| 20260503204403 | 0 | 0.0 | 0.0 | 0.00 | 0.05 | 0.02 | 1018.2 | ||
| 20260503204303 | 0 | 0.0 | 0.0 | 0.00 | 0.05 | 0.02 | 1018.3 | ||
| 20260503204203 | 0 | 0.0 | 0.0 | 0.00 | 0.05 | 0.02 | 1018.2 | ||
| 20260503204103 | 0 | 0.0 | 0.0 | 0.00 | 0.05 | 0.02 | 1018.2 | ||
| 20260503204004 | 79 | 85 | 3.0 | 7.0 | 0.00 | 0.05 | 0.02 | 40 | 1018.3 |
| 20260503203903 | 79 | 85 | 3.0 | 7.0 | 0.00 | 0.05 | 0.02 | 40 | 1018.3 |
| 20260503203804 | 79 | 85 | 3.0 | 7.0 | 0.00 | 0.05 | 0.02 | 40 | 1018.2 |
| 20260503203703 | 79 | 85 | 3.0 | 7.0 | 0.00 | 0.05 | 0.02 | 40 | 1018.4 |
| 20260503203604 | 79 | 85 | 3.0 | 7.0 | 0.00 | 0.05 | 0.02 | 40 | 1018.3 |
| 20260503203503 | 79 | 85 | 3.0 | 7.0 | 0.00 | 0.05 | 0.02 | 40 | 1018.3 |
| 20260503203402 | 79 | 85 | 3.0 | 7.0 | 0.00 | 0.05 | 0.02 | 40 | 1018.3 |
| 20260503203303 | 79 | 85 | 3.0 | 7.0 | 0.00 | 0.05 | 0.02 | 40 | 1018.3 |
| 20260503203202 | 79 | 85 | 3.0 | 7.0 | 0.00 | 0.05 | 0.02 | 40 | 1018.4 |
| 20260503203103 | 79 | 85 | 3.0 | 7.0 | 0.00 | 0.05 | 0.02 | 40 | 1018.4 |
| 20260503203004 | 79 | 123 | 3.0 | 6.0 | 0.00 | 0.05 | 0.02 | 40 | 1018.5 |
| 20260503202903 | 79 | 169 | 2.0 | 6.0 | 0.00 | 0.05 | 0.02 | 42 | 1018.4 |
| 20260503202803 | 79 | 169 | 3.0 | 6.0 | 0.00 | 0.05 | 0.02 | 42 | 1018.5 |
| 20260503202702 | 79 | 169 | 3.0 | 5.0 | 0.00 | 0.05 | 0.02 | 39 | 1018.5 |
| 20260503202602 | 79 | 169 | 2.0 | 5.0 | 0.00 | 0.05 | 0.02 | 39 | 1018.6 |
| 20260503202503 | 79 | 165 | 2.0 | 3.0 | 0.00 | 0.05 | 0.02 | 39 | 1018.6 |
| 20260503202402 | 79 | 165 | 2.0 | 3.0 | 0.00 | 0.05 | 0.02 | 38 | 1018.6 |
| 20260503202304 | 79 | 166 | 2.0 | 2.0 | 0.00 | 0.05 | 0.02 | 38 | 1018.7 |
| 20260503202203 | 0 | 0.0 | 0.0 | 0.00 | 0.05 | 0.02 | 1018.7 | ||
| 20260503202103 | 0 | 0.0 | 0.0 | 0.00 | 0.05 | 0.02 | 1018.6 | ||
| 20260503202003 | 0 | 0.0 | 0.0 | 0.00 | 0.05 | 0.02 | 1018.7 | ||
| 20260503201903 | 0 | 0.0 | 0.0 | 0.00 | 0.05 | 0.02 | 1018.7 | ||
| 20260503201803 | 0 | 0.0 | 0.0 | 0.00 | 0.05 | 0.02 | 1018.7 | ||
| 20260503201703 | 0 | 0.0 | 0.0 | 0.00 | 0.05 | 0.02 | 1018.7 | ||
| 20260503201603 | 0 | 0.0 | 0.0 | 0.00 | 0.05 | 0.02 | 1018.6 | ||
| 20260503201503 | 0 | 0.0 | 0.0 | 0.00 | 0.05 | 0.02 | 1018.7 | ||
| 20260503201403 | 0 | 0.0 | 0.0 | 0.00 | 0.05 | 0.02 | 1018.7 | ||
| 20260503201303 | 0 | 0.0 | 0.0 | 0.00 | 0.05 | 0.02 | 1018.7 | ||
| 20260503201203 | 0 | 0.0 | 0.0 | 0.00 | 0.05 | 0.02 | 1018.7 | ||
| 20260503201104 | 0 | 0.0 | 0.0 | 0.00 | 0.05 | 0.02 | 1018.6 | ||
| 20260503201003 | 0 | 0.0 | 0.0 | 0.00 | 0.05 | 0.02 | 1018.8 | ||
| 20260503200903 | 0 | 0.0 | 0.0 | 0.00 | 0.05 | 0.02 | 1018.9 | ||
| 20260503200802 | 0 | 0.0 | 0.0 | 0.00 | 0.05 | 0.02 | 1018.9 | ||
| 20260503200703 | 0 | 0.0 | 0.0 | 0.00 | 0.05 | 0.02 | 1018.9 | ||
| 20260503200604 | 0 | 0.0 | 0.0 | 0.00 | 0.05 | 0.02 | 1018.8 | ||
| 20260503200504 | 0 | 0.0 | 0.0 | 0.00 | 0.05 | 0.02 | 1018.9 | ||
| 20260503200403 | 0 | 0.0 | 0.0 | 0.00 | 0.05 | 0.02 | 1018.9 | ||
| 20260503200303 | 0 | 0.0 | 0.0 | 0.00 | 0.05 | 0.02 | 1018.9 | ||
| 20260503200203 | 0 | 0.0 | 0.0 | 0.00 | 0.05 | 0.02 | 1019.0 | ||
| 20260503200104 | 0 | 0.0 | 0.0 | 0.00 | 0.05 | 0.02 | 1018.9 | ||
| 20260503200004 | 0 | 0.0 | 0.0 | 0.00 | 0.05 | 0.02 | 1019.0 | ||
| 20260503195904 | 0 | 0.0 | 0.0 | 0.00 | 0.05 | 0.02 | 1019.0 | ||
| 20260503195803 | 0 | 0.0 | 0.0 | 0.00 | 0.05 | 0.02 | 1018.9 | ||
| 20260503195704 | 0 | 0.0 | 0.0 | 0.00 | 0.05 | 0.02 | 1019.0 | ||
| 20260503195603 | 0 | 0.0 | 0.0 | 0.00 | 0.05 | 0.02 | 1019.0 | ||
| 20260503195504 | 0 | 0.0 | 0.0 | 0.00 | 0.05 | 0.02 | 1019.0 | ||
| 20260503195403 | 0 | 0.0 | 0.0 | 0.00 | 0.05 | 0.02 | 1019.1 | ||
| 20260503195304 | 0 | 0.0 | 0.0 | 0.00 | 0.05 | 0.02 | 1019.0 | ||
| 20260503195203 | 0 | 0.0 | 0.0 | 0.00 | 0.05 | 0.02 | 1019.1 | ||
| 20260503195103 | 0 | 0.0 | 0.0 | 0.00 | 0.05 | 0.02 | 1019.0 | ||
| 20260503195003 | 0 | 0.0 | 0.0 | 0.00 | 0.05 | 0.02 | 1019.0 | ||
| 20260503194903 | 0 | 0.0 | 0.0 | 0.00 | 0.05 | 0.02 | 1019.0 | ||
| 20260503194803 | 0 | 0.0 | 0.0 | 0.00 | 0.05 | 0.02 | 1019.0 | ||
| 20260503194703 | 0 | 0.0 | 0.0 | 0.00 | 0.05 | 0.02 | 1019.0 | ||
| 20260503194603 | 0 | 0.0 | 0.0 | 0.00 | 0.05 | 0.02 | 1019.0 | ||
| 20260503194505 | 0 | 0.0 | 0.0 | 0.00 | 0.05 | 0.02 | 1019.1 | ||
| 20260503194403 | 0 | 0.0 | 0.0 | 0.00 | 0.05 | 0.02 | 1019.2 | ||
| 20260503194303 | 0 | 0.0 | 0.0 | 0.00 | 0.05 | 0.02 | 1019.2 | ||
| 20260503194204 | 0 | 0.0 | 0.0 | 0.00 | 0.05 | 0.02 | 1019.1 | ||
| 20260503194104 | 0 | 0.0 | 0.0 | 0.00 | 0.06 | 0.02 | 1019.2 | ||
| 20260503194003 | 0 | 0.0 | 0.0 | 0.00 | 0.06 | 0.02 | 1019.1 | ||
| 20260503193903 | 0 | 0.0 | 0.0 | 0.00 | 0.06 | 0.02 | 1019.2 | ||
| 20260503193803 | 0 | 0.0 | 0.0 | 0.00 | 0.06 | 0.02 | 1019.2 | ||
| 20260503193703 | 0 | 0.0 | 0.0 | 0.00 | 0.06 | 0.02 | 1019.3 | ||
| 20260503193603 | 0 | 0.0 | 0.0 | 0.00 | 0.06 | 0.02 | 1019.2 | ||
| 20260503193504 | 0 | 0.0 | 0.0 | 0.00 | 0.06 | 0.02 | 1019.3 | ||
| 20260503193403 | 0 | 0.0 | 0.0 | 0.00 | 0.06 | 0.02 | 1019.3 | ||
| 20260503193303 | 0 | 0.0 | 0.0 | 0.00 | 0.06 | 0.02 | 1019.3 | ||
| 20260503193204 | 0 | 0.0 | 0.0 | 0.00 | 0.06 | 0.02 | 1019.3 | ||
| 20260503193102 | 0 | 0.0 | 0.0 | 0.00 | 0.06 | 0.02 | 1019.3 | ||
| 20260503193004 | 0 | 0.0 | 0.0 | 0.00 | 0.06 | 0.02 | 1019.4 | ||
| 20260503192903 | 0 | 0.0 | 0.0 | 0.00 | 0.06 | 0.02 | 1019.4 | ||
| 20260503192804 | 0 | 0.0 | 0.0 | 0.00 | 0.06 | 0.02 | 1019.4 | ||
| 20260503192703 | 0 | 0.0 | 0.0 | 0.00 | 0.06 | 0.02 | 1019.3 | ||
| 20260503192603 | 0 | 0.0 | 0.0 | 0.00 | 0.06 | 0.02 | 1019.4 | ||
| 20260503192504 | 0 | 0.0 | 0.0 | 0.00 | 0.06 | 0.02 | 1019.4 | ||
| 20260503192403 | 78 | 151 | 0.0 | 0.0 | 0.00 | 0.06 | 0.02 | 38 | 1019.5 |
| 20260503192305 | 78 | 151 | 0.0 | 1.0 | 0.00 | 0.06 | 0.02 | 38 | 1019.5 |
| 20260503192203 | 78 | 151 | 0.0 | 2.0 | 0.00 | 0.06 | 0.02 | 38 | 1019.6 |
| 20260503192103 | 78 | 151 | 0.0 | 5.0 | 0.00 | 0.06 | 0.02 | 38 | 1019.5 |
| 20260503192003 | 78 | 151 | 0.0 | 5.0 | 0.00 | 0.06 | 0.02 | 38 | 1019.6 |
| 20260503191902 | 78 | 151 | 0.0 | 6.0 | 0.00 | 0.06 | 0.02 | 38 | 1019.6 |
| 20260503191803 | 78 | 151 | 0.0 | 6.0 | 0.00 | 0.06 | 0.02 | 38 | 1019.6 |
| 20260503191702 | 78 | 151 | 0.0 | 6.0 | 0.00 | 0.06 | 0.02 | 38 | 1019.6 |
| 20260503191603 | 78 | 151 | 0.0 | 9.0 | 0.00 | 0.06 | 0.02 | 38 | 1019.6 |
| 20260503191502 | 78 | 151 | 0.0 | 9.0 | 0.00 | 0.06 | 0.02 | 38 | 1019.6 |
| 20260503191402 | 78 | 151 | 1.0 | 9.0 | 0.00 | 0.06 | 0.02 | 38 | 1019.6 |
| 20260503191302 | 79 | 151 | 1.0 | 9.0 | 0.00 | 0.06 | 0.02 | 38 | 1019.7 |
| 20260503191200 | 79 | 151 | 2.0 | 9.0 | 0.00 | 0.06 | 0.02 | 40 | 1019.7 |
| 20260503191102 | 79 | 142 | 2.0 | 9.0 | 0.00 | 0.06 | 0.02 | 40 | 1019.7 |
| 20260503191001 | 79 | 147 | 4.0 | 9.0 | 0.00 | 0.06 | 0.02 | 43 | 1019.7 |
| 20260503190902 | 79 | 175 | 4.0 | 9.0 | 0.00 | 0.06 | 0.02 | 37 | 1019.7 |
| 20260503190800 | 79 | 188 | 4.0 | 9.0 | 0.00 | 0.06 | 0.02 | 43 | 1019.8 |
| 20260503190702 | 80 | 193 | 6.0 | 9.0 | 0.00 | 0.06 | 0.02 | 43 | 1019.8 |
| 20260503190600 | 0 | 0.0 | 0.0 | 0.00 | 0.06 | 0.02 | 1019.7 | ||
| 20260503190500 | 0 | 0.0 | 0.0 | 0.00 | 0.06 | 0.02 | 1019.8 | ||
| 20260503190400 | 0 | 0.0 | 0.0 | 0.00 | 0.06 | 0.02 | 1019.8 | ||
| 20260503190300 | 0 | 0.0 | 0.0 | 0.00 | 0.06 | 0.02 | 1019.8 | ||
| 20260503190200 | 0 | 0.0 | 0.0 | 0.00 | 0.06 | 0.02 | 1019.9 | ||
| 20260503190058 | 0 | 0.0 | 0.0 | 0.00 | 0.06 | 0.02 | 1019.8 | ||
| 20260503185957 | 0 | 0.0 | 0.0 | 0.00 | 0.06 | 0.02 | 1019.8 | ||
| 20260503185858 | 0 | 0.0 | 0.0 | 0.00 | 0.06 | 0.02 | 1019.8 | ||
| 20260503185757 | 0 | 0.0 | 0.0 | 0.00 | 0.06 | 0.02 | 1019.8 | ||
| 20260503185658 | 0 | 0.0 | 0.0 | 0.00 | 0.06 | 0.02 | 1019.9 | ||
| 20260503185557 | 0 | 0.0 | 0.0 | 0.00 | 0.06 | 0.02 | 1019.8 | ||
| 20260503185455 | 78 | 173 | 2.0 | 4.0 | 0.00 | 0.06 | 0.02 | 43 | 1019.8 |
| 20260503185357 | 78 | 173 | 2.0 | 4.0 | 0.00 | 0.06 | 0.02 | 43 | 1019.8 |
| 20260503185256 | 78 | 173 | 2.0 | 4.0 | 0.00 | 0.06 | 0.02 | 43 | 1019.9 |
| 20260503185157 | 78 | 173 | 2.0 | 4.0 | 0.00 | 0.06 | 0.02 | 43 | 1019.8 |
| 20260503185054 | 78 | 173 | 2.0 | 5.0 | 0.00 | 0.06 | 0.02 | 43 | 1019.9 |
| 20260503184954 | 78 | 173 | 2.0 | 5.0 | 0.00 | 0.06 | 0.02 | 43 | 1019.9 |
| 20260503184854 | 78 | 173 | 2.0 | 5.0 | 0.00 | 0.06 | 0.02 | 43 | 1020.0 |
| 20260503184754 | 78 | 173 | 2.0 | 6.0 | 0.00 | 0.06 | 0.02 | 43 | 1020.0 |
| 20260503184654 | 78 | 173 | 2.0 | 6.0 | 0.00 | 0.06 | 0.02 | 43 | 1019.9 |
| 20260503184553 | 78 | 173 | 2.0 | 6.0 | 0.00 | 0.06 | 0.02 | 43 | 1019.9 |
| 20260503184454 | 78 | 175 | 2.0 | 6.0 | 0.00 | 0.06 | 0.02 | 41 | 1020.0 |
| 20260503184353 | 78 | 175 | 1.0 | 6.0 | 0.00 | 0.06 | 0.02 | 39 | 1020.0 |
| 20260503184255 | 78 | 175 | 2.0 | 6.0 | 0.00 | 0.06 | 0.02 | 41 | 1020.0 |
| 20260503184152 | 78 | 175 | 3.0 | 6.0 | 0.00 | 0.06 | 0.02 | 41 | 1020.0 |
| 20260503184054 | 78 | 130 | 2.0 | 6.0 | 0.00 | 0.06 | 0.02 | 39 | 1020.1 |
| 20260503183954 | 79 | 130 | 2.0 | 6.0 | 0.00 | 0.06 | 0.02 | 41 | 1020.0 |
| 20260503183853 | 79 | 130 | 4.0 | 6.0 | 0.00 | 0.06 | 0.02 | 41 | 1020.1 |
| 20260503183754 | 0 | 0.0 | 0.0 | 0.00 | 0.06 | 0.02 | 1020.1 | ||
| 20260503183654 | 0 | 0.0 | 0.0 | 0.00 | 0.06 | 0.02 | 1020.1 | ||
| 20260503183552 | 0 | 0.0 | 0.0 | 0.00 | 0.06 | 0.02 | 1020.1 | ||
| 20260503183452 | 0 | 0.0 | 0.0 | 0.00 | 0.06 | 0.02 | 1020.1 | ||
| 20260503183352 | 0 | 0.0 | 0.0 | 0.00 | 0.06 | 0.02 | 1020.1 | ||
| 20260503183252 | 0 | 0.0 | 0.0 | 0.00 | 0.06 | 0.02 | 1020.0 | ||
| 20260503183152 | 0 | 0.0 | 0.0 | 0.00 | 0.06 | 0.02 | 1020.1 | ||
| 20260503183052 | 0 | 0.0 | 0.0 | 0.00 | 0.06 | 0.02 | 1020.1 | ||
| 20260503182950 | 78 | 78 | 1.0 | 2.0 | 0.00 | 0.06 | 0.02 | 40 | 1020.1 |
| 20260503182851 | 78 | 78 | 1.0 | 3.0 | 0.00 | 0.06 | 0.02 | 40 | 1020.1 |
| 20260503182749 | 78 | 78 | 1.0 | 3.0 | 0.00 | 0.06 | 0.02 | 40 | 1020.1 |
| 20260503182651 | 78 | 78 | 1.0 | 3.0 | 0.00 | 0.06 | 0.02 | 40 | 1020.2 |
| 20260503182548 | 78 | 78 | 1.0 | 3.0 | 0.00 | 0.06 | 0.02 | 40 | 1020.2 |
| 20260503182448 | 78 | 78 | 1.0 | 4.0 | 0.00 | 0.07 | 0.02 | 40 | 1020.1 |
| 20260503182347 | 78 | 78 | 1.0 | 6.0 | 0.00 | 0.07 | 0.02 | 40 | 1020.1 |
| 20260503182248 | 78 | 78 | 1.0 | 6.0 | 0.00 | 0.07 | 0.02 | 40 | 1020.1 |
| 20260503182148 | 78 | 78 | 1.0 | 6.0 | 0.00 | 0.07 | 0.02 | 40 | 1020.1 |
| 20260503182048 | 78 | 78 | 1.0 | 6.0 | 0.00 | 0.07 | 0.02 | 40 | 1020.2 |
| 20260503181947 | 78 | 78 | 1.0 | 6.0 | 0.00 | 0.07 | 0.02 | 41 | 1020.3 |
| 20260503181846 | 77 | 0 | 0.0 | 6.0 | 0.00 | 0.07 | 0.02 | 38 | 1020.2 |
| 20260503181747 | 78 | 80 | 1.0 | 6.0 | 0.00 | 0.07 | 0.02 | 39 | 1020.2 |
| 20260503181648 | 77 | 80 | 2.0 | 6.0 | 0.00 | 0.07 | 0.02 | 41 | 1020.3 |
| 20260503181548 | 77 | 87 | 3.0 | 6.0 | 0.00 | 0.07 | 0.02 | 39 | 1020.3 |
| 20260503181447 | 77 | 68 | 5.0 | 6.0 | 0.00 | 0.07 | 0.02 | 41 | 1020.3 |
| 20260503181348 | 78 | 0 | 4.0 | 6.0 | 0.00 | 0.07 | 0.02 | 41 | 1020.3 |
| 20260503181246 | 78 | 0 | 4.0 | 6.0 | 0.00 | 0.07 | 0.02 | 41 | 1020.3 |
| 20260503181146 | 78 | 0 | 4.0 | 6.0 | 0.00 | 0.07 | 0.02 | 41 | 1020.4 |
| 20260503181046 | 78 | 0 | 4.0 | 6.0 | 0.00 | 0.07 | 0.02 | 41 | 1020.4 |
| 20260503180946 | 78 | 0 | 4.0 | 6.0 | 0.00 | 0.07 | 0.02 | 41 | 1020.4 |
| 20260503180846 | 78 | 0 | 4.0 | 6.0 | 0.00 | 0.07 | 0.02 | 41 | 1020.5 |
| 20260503180746 | 78 | 0 | 4.0 | 6.0 | 0.00 | 0.07 | 0.02 | 41 | 1020.5 |
| 20260503180645 | 78 | 0 | 4.0 | 6.0 | 0.00 | 0.07 | 0.02 | 41 | 1020.5 |
| 20260503180547 | 78 | 0 | 3.0 | 6.0 | 0.00 | 0.07 | 0.02 | 40 | 1020.4 |
| 20260503180445 | 78 | 0 | 4.0 | 6.0 | 0.00 | 0.07 | 0.02 | 39 | 1020.4 |
| 20260503180345 | 78 | 0 | 3.0 | 6.0 | 0.00 | 0.07 | 0.02 | 42 | 1020.5 |
| 20260503180244 | 78 | 0 | 1.0 | 4.0 | 0.00 | 0.07 | 0.02 | 41 | 1020.5 |
| 20260503180146 | 78 | 0 | 1.0 | 3.0 | 0.00 | 0.07 | 0.02 | 43 | 1020.6 |
| 20260503180046 | 77 | 0 | 1.0 | 3.0 | 0.00 | 0.07 | 0.02 | 42 | 1020.6 |
| 20260503175945 | 78 | 0 | 2.0 | 3.0 | 0.00 | 0.07 | 0.01 | 40 | 1020.6 |
| 20260503175846 | 0 | 0.0 | 0.0 | 0.00 | 0.07 | 0.02 | 1020.7 | ||
| 20260503175746 | 0 | 0.0 | 0.0 | 0.00 | 0.07 | 0.02 | 1020.6 | ||
| 20260503175645 | 0 | 0.0 | 0.0 | 0.00 | 0.07 | 0.02 | 1020.7 | ||
| 20260503175543 | 0 | 0.0 | 0.0 | 0.00 | 0.07 | 0.02 | 1020.7 | ||
| 20260503175445 | 0 | 0.0 | 0.0 | 0.00 | 0.07 | 0.02 | 1020.7 | ||
| 20260503175343 | 0 | 0.0 | 0.0 | 0.00 | 0.07 | 0.02 | 1020.7 | ||
| 20260503175244 | 0 | 0.0 | 0.0 | 0.00 | 0.07 | 0.02 | 1020.8 | ||
| 20260503175142 | 0 | 0.0 | 0.0 | 0.00 | 0.07 | 0.02 | 1020.8 | ||
| 20260503175042 | 0 | 0.0 | 0.0 | 0.00 | 0.07 | 0.02 | 1020.8 | ||
| 20260503174942 | 0 | 0.0 | 0.0 | 0.00 | 0.07 | 0.02 | 1020.8 | ||
| 20260503174841 | 0 | 0.0 | 0.0 | 0.00 | 0.07 | 0.02 | 1020.8 | ||
| 20260503174742 | 0 | 0.0 | 0.0 | 0.00 | 0.07 | 0.02 | 1020.8 | ||
| 20260503174640 | 0 | 0.0 | 0.0 | 0.00 | 0.07 | 0.02 | 1020.7 | ||
| 20260503174540 | 0 | 0.0 | 0.0 | 0.00 | 0.07 | 0.02 | 1020.8 | ||
| 20260503174440 | 0 | 0.0 | 0.0 | 0.00 | 0.07 | 0.02 | 1020.9 | ||
| 20260503174340 | 0 | 0.0 | 0.0 | 0.00 | 0.07 | 0.02 | 1020.9 | ||
| 20260503174241 | 0 | 0.0 | 0.0 | 0.01 | 0.07 | 0.02 | 1020.9 | ||
| 20260503174139 | 0 | 0.0 | 0.0 | 0.01 | 0.07 | 0.02 | 1021.0 | ||
| 20260503174039 | 0 | 0.0 | 0.0 | 0.01 | 0.07 | 0.02 | 1021.0 | ||
| 20260503173938 | 0 | 0.0 | 0.0 | 0.01 | 0.07 | 0.02 | 1021.0 | ||
| 20260503173840 | 0 | 0.0 | 0.0 | 0.01 | 0.07 | 0.02 | 1021.0 | ||
| 20260503173738 | 0 | 0.0 | 0.0 | 0.01 | 0.07 | 0.02 | 1021.0 | ||
| 20260503173636 | 0 | 0.0 | 0.0 | 0.01 | 0.07 | 0.02 | 1021.1 | ||
| 20260503173535 | 0 | 0.0 | 0.0 | 0.01 | 0.07 | 0.02 | 1021.0 | ||
| 20260503173436 | 0 | 0.0 | 0.0 | 0.01 | 0.07 | 0.02 | 1021.2 | ||
| 20260503173338 | 0 | 0.0 | 0.0 | 0.01 | 0.07 | 0.02 | 1021.1 | ||
| 20260503173231 | 0 | 0.0 | 0.0 | 0.01 | 0.07 | 0.02 | 1021.0 | ||
| 20260503173132 | 0 | 0.0 | 0.0 | 0.01 | 0.07 | 0.02 | 1021.2 | ||
| 20260503173032 | 0 | 0.0 | 0.0 | 0.01 | 0.07 | 0.02 | 1021.2 | ||
| 20260503172932 | 0 | 0.0 | 0.0 | 0.01 | 0.07 | 0.02 | 1021.3 | ||
| 20260503172832 | 0 | 0.0 | 0.0 | 0.01 | 0.07 | 0.02 | 1021.2 | ||
| 20260503172733 | 0 | 0.0 | 0.0 | 0.01 | 0.07 | 0.02 | 1021.2 | ||
| 20260503172631 | 0 | 0.0 | 0.0 | 0.01 | 0.07 | 0.02 | 1021.3 | ||
| 20260503172532 | 0 | 0.0 | 0.0 | 0.01 | 0.07 | 0.02 | 1021.3 | ||
| 20260503172432 | 0 | 0.0 | 0.0 | 0.01 | 0.08 | 0.02 | 1021.3 | ||
| 20260503172332 | 0 | 0.0 | 0.0 | 0.01 | 0.08 | 0.02 | 1021.3 | ||
| 20260503172231 | 0 | 0.0 | 0.0 | 0.01 | 0.08 | 0.02 | 1021.3 | ||
| 20260503172131 | 0 | 0.0 | 0.0 | 0.01 | 0.08 | 0.02 | 1021.4 | ||
| 20260503172031 | 0 | 0.0 | 0.0 | 0.01 | 0.08 | 0.02 | 1021.4 | ||
| 20260503171930 | 0 | 0.0 | 0.0 | 0.01 | 0.08 | 0.02 | 1021.4 | ||
| 20260503171831 | 0 | 0.0 | 0.0 | 0.01 | 0.08 | 0.02 | 1021.4 | ||
| 20260503171731 | 0 | 0.0 | 0.0 | 0.01 | 0.08 | 0.02 | 1021.4 | ||
| 20260503171629 | 0 | 0.0 | 0.0 | 0.01 | 0.08 | 0.02 | 1021.4 | ||
| 20260503171530 | 0 | 0.0 | 0.0 | 0.01 | 0.08 | 0.02 | 1021.5 | ||
| 20260503171429 | 0 | 0.0 | 0.0 | 0.01 | 0.08 | 0.02 | 1021.4 | ||
| 20260503171329 | 0 | 0.0 | 0.0 | 0.01 | 0.08 | 0.02 | 1021.4 | ||
| 20260503171229 | 0 | 0.0 | 0.0 | 0.01 | 0.08 | 0.02 | 1021.4 | ||
| 20260503171128 | 0 | 0.0 | 0.0 | 0.01 | 0.08 | 0.02 | 1021.4 | ||
| 20260503171004 | 0 | 0.0 | 0.0 | 0.01 | 0.08 | 0.02 | 1021.4 | ||
| 20260503170904 | 0 | 0.0 | 0.0 | 0.01 | 0.08 | 0.02 | 1021.4 | ||
| 20260503170803 | 0 | 0.0 | 0.0 | 0.01 | 0.08 | 0.02 | 1021.4 | ||
| 20260503170703 | 0 | 0.0 | 0.0 | 0.01 | 0.08 | 0.02 | 1021.5 | ||
| 20260503170603 | 0 | 0.0 | 0.0 | 0.01 | 0.08 | 0.02 | 1021.5 | ||
| 20260503170504 | 0 | 0.0 | 0.0 | 0.01 | 0.08 | 0.02 | 1021.5 | ||
| 20260503170403 | 0 | 0.0 | 0.0 | 0.01 | 0.08 | 0.02 | 1021.4 | ||
| 20260503170303 | 0 | 0.0 | 0.0 | 0.01 | 0.08 | 0.02 | 1021.5 | ||
| 20260503170202 | 0 | 0.0 | 0.0 | 0.01 | 0.08 | 0.02 | 1021.4 | ||
| 20260503170104 | 76 | 214 | 3.0 | 3.0 | 0.01 | 0.08 | 0.02 | 45 | 1021.5 |
| 20260503160204 | 0 | 0.0 | 0.0 | 0.00 | 0.09 | 0.01 | 1021.5 | ||
| 20260503151003 | 74 | 178 | 1.0 | 2.0 | 0.00 | 0.09 | 0.01 | 55 | 1021.4 |
| 20260503150903 | 74 | 178 | 1.0 | 2.0 | 0.00 | 0.09 | 0.01 | 55 | 1021.5 |
| 20260503150803 | 74 | 178 | 1.0 | 2.0 | 0.00 | 0.09 | 0.01 | 55 | 1021.4 |
| 20260503150703 | 74 | 178 | 1.0 | 2.0 | 0.00 | 0.09 | 0.01 | 55 | 1021.4 |
| 20260503150604 | 74 | 178 | 1.0 | 2.0 | 0.00 | 0.09 | 0.01 | 55 | 1021.4 |
| 20260503150505 | 74 | 178 | 1.0 | 2.0 | 0.00 | 0.09 | 0.01 | 54 | 1021.4 |
| 20260503150402 | 74 | 178 | 1.0 | 2.0 | 0.00 | 0.09 | 0.01 | 53 | 1021.4 |
| 20260503150302 | 74 | 178 | 1.0 | 2.0 | 0.00 | 0.09 | 0.01 | 53 | 1021.4 |
| 20260503150202 | 74 | 178 | 1.0 | 2.0 | 0.00 | 0.09 | 0.01 | 53 | 1021.4 |
| 20260503150103 | 74 | 178 | 0.0 | 0.0 | 0.00 | 0.09 | 0.01 | 54 | 1021.4 |
| 20260503140233 | 0 | 0.0 | 0.0 | 0.00 | 0.10 | 0.01 | 1021.0 | ||
| 20260503140133 | 0 | 0.0 | 0.0 | 0.00 | 0.10 | 0.01 | 1021.1 | ||
| 20260503131415 | 0 | 0.0 | 0.0 | 0.00 | 0.12 | 0.01 | 1020.9 | ||
| 20260503131314 | 0 | 0.0 | 0.0 | 0.00 | 0.12 | 0.01 | 1021.0 | ||
| 20260503131203 | 0 | 0.0 | 0.0 | 0.00 | 0.12 | 0.01 | 1020.9 | ||
| 20260503131103 | 0 | 0.0 | 0.0 | 0.00 | 0.12 | 0.01 | 1020.8 | ||
| 20260503131004 | 0 | 0.0 | 0.0 | 0.00 | 0.12 | 0.01 | 1020.9 | ||
| 20260503130903 | 0 | 0.0 | 0.0 | 0.00 | 0.12 | 0.01 | 1020.9 | ||
| 20260503130803 | 0 | 0.0 | 0.0 | 0.00 | 0.12 | 0.01 | 1020.8 | ||
| 20260503130703 | 0 | 0.0 | 0.0 | 0.00 | 0.12 | 0.01 | 1020.8 | ||
| 20260503130603 | 0 | 0.0 | 0.0 | 0.00 | 0.12 | 0.01 | 1020.8 | ||
| 20260503130503 | 0 | 0.0 | 0.0 | 0.00 | 0.12 | 0.01 | 1020.8 | ||
| 20260503130403 | 0 | 0.0 | 0.0 | 0.00 | 0.12 | 0.01 | 1020.8 | ||
| 20260503130303 | 0 | 0.0 | 0.0 | 0.00 | 0.12 | 0.01 | 1020.8 | ||
| 20260503130203 | 0 | 0.0 | 0.0 | 0.00 | 0.12 | 0.01 | 1020.8 | ||
| 20260503130103 | 0 | 0.0 | 0.0 | 0.00 | 0.12 | 0.01 | 1020.7 | ||
| 20260503120152 | 58 | 0 | 0.0 | 0.0 | 0.00 | 0.13 | 0.01 | 89 | 1020.4 |